Time,TemperatureF,DewpointF,PressureIn,WindDirection,WindDirectionDegrees,WindSpeedMPH,WindSpeedGustMPH,Humidity,HourlyPrecipIn,Conditions,Clouds,dailyrainin,SolarRadiationWatts/m^2,SoftwareType,DateUTC
2013-02-09 00:00:00,16.7,14.5,29.65,NNW,329,20.0,31.0,91,0.00,,,0.00,0.00,VWS V14.01,2013-02-09 05:00:00,
2013-02-09 00:02:00,16.7,14.5,29.65,North,360,13.0,31.0,91,0.00,,,0.00,0.00,VWS V14.01,2013-02-09 05:02:00,
2013-02-09 00:05:00,16.7,14.5,29.65,NNE,26,14.0,31.0,91,0.00,,,0.00,0.00,VWS V14.01,2013-02-09 05:05:00,
2013-02-09 00:06:00,16.7,14.5,29.64,NNW,333,9.0,14.0,91,0.00,,,0.00,0.00,VWS V14.01,2013-02-09 05:06:00,
2013-02-09 00:07:00,16.7,14.5,29.65,NNW,344,12.0,18.0,91,0.00,,,0.00,0.00,VWS V14.01,2013-02-09 05:07:00,
2013-02-09 00:11:00,16.7,14.5,29.64,NNW,346,12.0,19.0,91,0.00,,,0.00,0.00,VWS V14.01,2013-02-09 05:11:00,
2013-02-09 00:12:00,16.8,14.6,29.64,North,351,10.0,19.0,91,0.00,,,0.00,0.00,VWS V14.01,2013-02-09 05:12:00,
2013-02-09 00:14:00,16.8,14.6,29.64,North,5,9.0,19.0,91,0.00,,,0.00,0.00,VWS V14.01,2013-02-09 05:14:00,
2013-02-09 00:16:00,16.8,14.6,29.64,NW,323,11.0,19.0,91,0.00,,,0.00,0.00,VWS V14.01,2013-02-09 05:16:00,
2013-02-09 00:17:00,16.8,14.6,29.63,NNE,19,13.0,19.0,91,0.00,,,0.00,0.00,VWS V14.01,2013-02-09 05:17:00,
2013-02-09 00:19:00,16.8,14.6,29.63,North,355,13.0,23.0,91,0.00,,,0.00,0.00,VWS V14.01,2013-02-09 05:19:00,
2013-02-09 00:22:00,16.8,14.6,29.62,NNW,340,16.0,23.0,91,0.00,,,0.00,0.00,VWS V14.01,2013-02-09 05:22:00,
2013-02-09 00:24:00,16.8,14.6,29.62,North,5,10.0,23.0,91,0.00,,,0.00,0.00,VWS V14.01,2013-02-09 05:24:00,
2013-02-09 00:28:00,16.9,14.7,29.63,North,355,6.0,23.0,91,0.00,,,0.00,0.00,VWS V14.01,2013-02-09 05:28:00,
2013-02-09 00:29:00,16.9,14.7,29.63,North,355,11.0,23.0,91,0.00,,,0.00,0.00,VWS V14.01,2013-02-09 05:29:00,
2013-02-09 00:33:00,16.9,14.7,29.63,North,355,9.0,23.0,91,0.00,,,0.00,0.00,VWS V14.01,2013-02-09 05:33:00,
2013-02-09 00:34:00,17.0,14.8,29.63,NNW,340,7.0,23.0,91,0.00,,,0.00,0.00,VWS V14.01,2013-02-09 05:34:00,
2013-02-09 00:36:00,17.0,14.8,29.62,WNW,300,6.0,23.0,91,0.00,,,0.00,0.00,VWS V14.01,2013-02-09 05:36:00,
2013-02-09 00:39:00,17.0,14.8,29.63,North,360,18.0,23.0,91,0.00,,,0.00,0.00,VWS V14.01,2013-02-09 05:39:00,
2013-02-09 00:41:00,17.0,14.8,29.63,NNW,338,11.0,23.0,91,0.00,,,0.00,0.00,VWS V14.01,2013-02-09 05:41:00,
2013-02-09 00:44:00,17.0,14.8,29.63,NW,317,8.0,23.0,91,0.00,,,0.00,0.00,VWS V14.01,2013-02-09 05:44:00,
2013-02-09 00:46:00,16.9,14.7,29.62,North,355,7.0,23.0,91,0.00,,,0.00,0.00,VWS V14.01,2013-02-09 05:46:00,
2013-02-09 00:51:00,16.8,14.6,29.61,North,5,18.0,23.0,91,0.00,,,0.00,0.00,VWS V14.01,2013-02-09 05:51:00,
2013-02-09 00:53:00,16.7,14.5,29.62,NNW,333,12.0,23.0,91,0.00,,,0.00,0.00,VWS V14.01,2013-02-09 05:53:00,
2013-02-09 00:56:00,16.6,14.4,29.62,NW,319,10.0,23.0,91,0.00,,,0.00,0.00,VWS V14.01,2013-02-09 05:56:00,
2013-02-09 00:58:00,16.6,14.4,29.61,West,278,4.0,23.0,91,0.00,,,0.00,0.00,VWS V14.01,2013-02-09 05:58:00,
2013-02-09 01:03:00,16.5,14.3,29.62,NNW,344,9.0,23.0,91,0.00,,,0.00,0.00,VWS V14.01,2013-02-09 06:03:00,
2013-02-09 01:05:00,16.4,14.2,29.62,NNE,18,10.0,23.0,91,0.00,,,0.00,0.00,VWS V14.01,2013-02-09 06:05:00,
2013-02-09 01:08:00,16.3,14.1,29.63,North,355,10.0,19.0,91,0.00,,,0.00,0.00,VWS V14.01,2013-02-09 06:08:00,
2013-02-09 01:10:00,16.2,14.0,29.63,NNW,333,14.0,19.0,91,0.00,,,0.00,0.00,VWS V14.01,2013-02-09 06:10:00,
2013-02-09 01:11:00,16.2,14.0,29.63,NNW,339,5.0,19.0,91,0.00,,,0.00,0.00,VWS V14.01,2013-02-09 06:11:00,
2013-02-09 01:13:00,16.2,14.0,29.63,NW,306,6.0,19.0,91,0.00,,,0.00,0.00,VWS V14.01,2013-02-09 06:13:00,
2013-02-09 01:15:00,16.1,13.9,29.64,NNW,337,6.0,19.0,91,0.00,,,0.00,0.00,VWS V14.01,2013-02-09 06:15:00,
2013-02-09 01:16:00,16.1,13.9,29.64,NNW,327,11.0,19.0,91,0.00,,,0.00,0.00,VWS V14.01,2013-02-09 06:16:00,
2013-02-09 01:18:00,16.1,13.9,29.64,NNW,348,11.0,19.0,91,0.00,,,0.00,0.00,VWS V14.01,2013-02-09 06:18:00,
2013-02-09 01:20:00,16.0,13.8,29.64,North,360,8.0,19.0,91,0.00,,,0.00,0.00,VWS V14.01,2013-02-09 06:20:00,
2013-02-09 01:22:00,16.0,13.8,29.64,NNW,337,5.0,19.0,91,0.00,,,0.00,0.00,VWS V14.01,2013-02-09 06:22:00,
2013-02-09 01:23:00,16.0,13.8,29.64,NNW,345,6.0,19.0,91,0.00,,,0.00,0.00,VWS V14.01,2013-02-09 06:23:00,
2013-02-09 01:25:00,16.0,13.8,29.64,North,355,18.0,19.0,91,0.00,,,0.00,0.00,VWS V14.01,2013-02-09 06:25:00,
2013-02-09 01:27:00,15.9,13.7,29.64,NNW,342,6.0,19.0,91,0.00,,,0.00,0.00,VWS V14.01,2013-02-09 06:27:00,
2013-02-09 01:32:00,15.9,13.7,29.64,NNW,348,11.0,20.0,91,0.00,,,0.00,0.00,VWS V14.01,2013-02-09 06:32:00,
2013-02-09 01:33:00,15.9,13.7,29.64,North,355,13.0,20.0,91,0.00,,,0.00,0.00,VWS V14.01,2013-02-09 06:33:00,
2013-02-09 01:39:00,15.9,13.7,29.65,NNW,329,5.0,20.0,91,0.00,,,0.00,0.00,VWS V14.01,2013-02-09 06:39:00,
2013-02-09 01:40:00,15.9,13.7,29.65,NW,307,6.0,20.0,91,0.00,,,0.00,0.00,VWS V14.01,2013-02-09 06:40:00,
2013-02-09 01:42:00,15.9,13.7,29.65,WNW,285,6.0,21.0,91,0.00,,,0.00,0.00,VWS V14.01,2013-02-09 06:42:00,
2013-02-09 01:47:00,16.0,13.8,29.65,WNW,291,8.0,21.0,91,0.00,,,0.00,0.00,VWS V14.01,2013-02-09 06:47:00,
2013-02-09 01:49:00,16.0,13.8,29.65,NNW,338,11.0,21.0,91,0.00,,,0.00,0.00,VWS V14.01,2013-02-09 06:49:00,
2013-02-09 01:50:00,16.1,13.9,29.65,NNW,340,6.0,21.0,91,0.00,,,0.00,0.00,VWS V14.01,2013-02-09 06:50:00,
2013-02-09 01:52:00,16.1,13.9,29.65,NNW,339,10.0,21.0,91,0.00,,,0.00,0.00,VWS V14.01,2013-02-09 06:52:00,
2013-02-09 01:57:00,16.2,14.0,29.65,NNW,348,13.0,25.0,91,0.00,,,0.00,0.00,VWS V14.01,2013-02-09 06:57:00,
2013-02-09 01:59:00,16.3,14.1,29.65,NNW,333,8.0,25.0,91,0.00,,,0.00,0.00,VWS V14.01,2013-02-09 06:59:00,
2013-02-09 02:01:00,16.3,14.1,29.65,NNW,340,9.0,25.0,91,0.00,,,0.00,0.00,VWS V14.01,2013-02-09 07:01:00,
2013-02-09 02:05:00,16.4,14.2,29.65,NW,306,11.0,25.0,91,0.00,,,0.00,0.00,VWS V14.01,2013-02-09 07:05:00,
2013-02-09 02:07:00,16.5,14.3,29.65,NNW,342,14.0,14.0,91,0.00,,,0.00,0.00,VWS V14.01,2013-02-09 07:07:00,
2013-02-09 02:13:00,16.6,14.7,29.65,NW,311,8.0,22.0,92,0.00,,,0.00,0.00,VWS V14.01,2013-02-09 07:13:00,
2013-02-09 02:16:00,16.8,14.9,29.65,NNW,347,13.0,22.0,92,0.00,,,0.00,0.00,VWS V14.01,2013-02-09 07:16:00,
2013-02-09 02:18:00,16.8,14.9,29.65,NNW,327,11.0,22.0,92,0.00,,,0.00,0.00,VWS V14.01,2013-02-09 07:18:00,
2013-02-09 02:23:00,17.0,15.1,29.65,NNW,336,11.0,22.0,92,0.00,,,0.00,0.00,VWS V14.01,2013-02-09 07:23:00,
2013-02-09 02:26:00,17.1,15.2,29.65,NNW,328,9.0,22.0,92,0.00,,,0.00,0.00,VWS V14.01,2013-02-09 07:26:00,
2013-02-09 02:28:00,17.1,15.2,29.64,NNE,31,8.0,22.0,92,0.00,,,0.00,0.00,VWS V14.01,2013-02-09 07:28:00,
2013-02-09 02:29:00,17.1,15.2,29.65,NNW,347,14.0,22.0,92,0.00,,,0.00,0.00,VWS V14.01,2013-02-09 07:29:00,
2013-02-09 02:31:00,17.2,15.3,29.64,WNW,289,2.0,22.0,92,0.00,,,0.00,0.00,VWS V14.01,2013-02-09 07:31:00,
2013-02-09 02:35:00,17.2,15.3,29.65,NNW,330,16.0,24.0,92,0.00,,,0.00,0.00,VWS V14.01,2013-02-09 07:35:00,
2013-02-09 02:38:00,17.3,15.4,29.65,NW,321,9.0,24.0,92,0.00,,,0.00,0.00,VWS V14.01,2013-02-09 07:38:00,
2013-02-09 02:41:00,17.4,15.5,29.64,WNW,290,6.0,24.0,92,0.00,,,0.00,0.00,VWS V14.01,2013-02-09 07:41:00,
2013-02-09 02:43:00,17.4,15.5,29.64,WNW,300,5.0,24.0,92,0.00,,,0.00,0.00,VWS V14.01,2013-02-09 07:43:00,
2013-02-09 02:45:00,17.5,15.6,29.64,NW,322,5.0,24.0,92,0.00,,,0.00,0.00,VWS V14.01,2013-02-09 07:45:00,
2013-02-09 02:46:00,17.5,15.6,29.64,NW,325,9.0,24.0,92,0.00,,,0.00,0.00,VWS V14.01,2013-02-09 07:46:00,
2013-02-09 02:48:00,17.5,15.6,29.64,North,350,12.0,24.0,92,0.00,,,0.00,0.00,VWS V14.01,2013-02-09 07:48:00,
2013-02-09 02:52:00,17.6,15.7,29.64,NNW,336,13.0,24.0,92,0.00,,,0.00,0.00,VWS V14.01,2013-02-09 07:52:00,
2013-02-09 02:53:00,17.6,15.7,29.64,North,355,13.0,24.0,92,0.00,,,0.00,0.00,VWS V14.01,2013-02-09 07:53:00,
2013-02-09 02:55:00,17.6,15.7,29.64,North,360,9.0,24.0,92,0.00,,,0.00,0.00,VWS V14.01,2013-02-09 07:55:00,
2013-02-09 03:00:00,17.7,15.8,29.64,North,5,14.0,24.0,92,0.00,,,0.00,0.00,VWS V14.01,2013-02-09 08:00:00,
2013-02-09 03:02:00,17.7,15.8,29.64,NNW,340,7.0,24.0,92,0.00,,,0.00,0.00,VWS V14.01,2013-02-09 08:02:00,
2013-02-09 03:05:00,17.8,15.9,29.64,NNW,340,6.0,24.0,92,0.00,,,0.00,0.00,VWS V14.01,2013-02-09 08:05:00,
2013-02-09 03:07:00,17.9,16.0,29.64,NW,323,4.0,18.0,92,0.00,,,0.00,0.00,VWS V14.01,2013-02-09 08:07:00,
2013-02-09 03:09:00,17.9,16.0,29.64,North,349,10.0,18.0,92,0.00,,,0.00,0.00,VWS V14.01,2013-02-09 08:09:00,
2013-02-09 03:10:00,17.9,16.0,29.64,NNW,333,5.0,18.0,92,0.00,,,0.00,0.00,VWS V14.01,2013-02-09 08:10:00,
2013-02-09 03:14:00,17.9,16.0,29.64,NNW,331,11.0,18.0,92,0.00,,,0.00,0.00,VWS V14.01,2013-02-09 08:14:00,
2013-02-09 03:15:00,18.0,16.1,29.64,NNW,340,8.0,18.0,92,0.00,,,0.00,0.00,VWS V14.01,2013-02-09 08:15:00,
2013-02-09 03:19:00,18.1,16.2,29.64,NW,325,10.0,18.0,92,0.00,,,0.00,0.00,VWS V14.01,2013-02-09 08:19:00,
2013-02-09 03:20:00,18.1,16.2,29.63,NNE,14,10.0,18.0,92,0.00,,,0.00,0.00,VWS V14.01,2013-02-09 08:20:00,
2013-02-09 03:24:00,18.2,16.3,29.63,NW,319,4.0,18.0,92,0.00,,,0.00,0.00,VWS V14.01,2013-02-09 08:24:00,
2013-02-09 03:25:00,18.2,16.3,29.63,NW,305,10.0,18.0,92,0.00,,,0.00,0.00,VWS V14.01,2013-02-09 08:25:00,
2013-02-09 03:27:00,18.2,16.3,29.63,North,350,11.0,18.0,92,0.00,,,0.00,0.00,VWS V14.01,2013-02-09 08:27:00,
2013-02-09 03:29:00,18.2,16.3,29.63,NW,309,4.0,18.0,92,0.00,,,0.00,0.00,VWS V14.01,2013-02-09 08:29:00,
2013-02-09 03:31:00,18.2,16.3,29.63,NNW,342,10.0,18.0,92,0.00,,,0.00,0.00,VWS V14.01,2013-02-09 08:31:00,
2013-02-09 03:32:00,18.3,16.4,29.64,West,281,2.0,18.0,92,0.00,,,0.00,0.00,VWS V14.01,2013-02-09 08:32:00,
2013-02-09 03:34:00,18.3,16.4,29.64,West,263,6.0,18.0,92,0.00,,,0.00,0.00,VWS V14.01,2013-02-09 08:34:00,
2013-02-09 03:37:00,18.3,16.4,29.64,NW,306,5.0,18.0,92,0.00,,,0.00,0.00,VWS V14.01,2013-02-09 08:37:00,
2013-02-09 03:39:00,18.4,16.5,29.64,NW,319,8.0,19.0,92,0.00,,,0.00,0.00,VWS V14.01,2013-02-09 08:39:00,
2013-02-09 03:41:00,18.4,16.5,29.64,NNW,328,15.0,19.0,92,0.00,,,0.00,0.00,VWS V14.01,2013-02-09 08:41:00,
2013-02-09 03:44:00,18.4,16.5,29.64,NW,319,18.0,19.0,92,0.00,,,0.00,0.00,VWS V14.01,2013-02-09 08:44:00,
2013-02-09 03:46:00,18.3,16.4,29.64,NNW,332,4.0,19.0,92,0.00,,,0.00,0.00,VWS V14.01,2013-02-09 08:46:00,
2013-02-09 03:48:00,18.3,16.4,29.65,North,355,7.0,19.0,92,0.00,,,0.00,0.00,VWS V14.01,2013-02-09 08:48:00,
2013-02-09 03:49:00,18.3,16.4,29.65,NNW,329,19.0,19.0,92,0.00,,,0.00,0.00,VWS V14.01,2013-02-09 08:49:00,
2013-02-09 03:51:00,18.3,16.4,29.64,North,5,14.0,19.0,92,0.00,,,0.00,0.00,VWS V14.01,2013-02-09 08:51:00,
2013-02-09 03:56:00,18.2,16.3,29.65,North,5,11.0,19.0,92,0.00,,,0.00,0.00,VWS V14.01,2013-02-09 08:56:00,
2013-02-09 03:58:00,18.1,16.2,29.65,WNW,290,5.0,19.0,92,0.00,,,0.00,0.00,VWS V14.01,2013-02-09 08:58:00,
2013-02-09 04:01:00,18.1,16.2,29.65,WNW,302,5.0,19.0,92,0.00,,,0.00,0.00,VWS V14.01,2013-02-09 09:01:00,
2013-02-09 04:03:00,18.1,16.2,29.65,WNW,290,1.0,19.0,92,0.00,,,0.00,0.00,VWS V14.01,2013-02-09 09:03:00,
2013-02-09 04:06:00,18.0,16.1,29.65,WNW,293,5.0,10.0,92,0.00,,,0.00,0.00,VWS V14.01,2013-02-09 09:06:00,
2013-02-09 04:10:00,17.9,16.0,29.65,NNW,343,11.0,19.0,92,0.00,,,0.00,0.00,VWS V14.01,2013-02-09 09:10:00,
2013-02-09 04:11:00,17.9,16.0,29.65,NW,311,8.0,19.0,92,0.00,,,0.00,0.00,VWS V14.01,2013-02-09 09:11:00,
2013-02-09 04:15:00,17.9,16.0,29.65,NW,317,5.0,19.0,92,0.00,,,0.00,0.00,VWS V14.01,2013-02-09 09:15:00,
2013-02-09 04:16:00,17.9,16.0,29.65,NW,316,12.0,19.0,92,0.00,,,0.00,0.00,VWS V14.01,2013-02-09 09:16:00,
2013-02-09 04:20:00,17.8,15.9,29.65,NNW,343,11.0,20.0,92,0.00,,,0.00,0.00,VWS V14.01,2013-02-09 09:20:00,
2013-02-09 04:22:00,17.8,15.9,29.65,NNW,339,7.0,20.0,92,0.00,,,0.00,0.00,VWS V14.01,2013-02-09 09:22:00,
2013-02-09 04:23:00,17.7,15.8,29.66,WNW,288,9.0,20.0,92,0.00,,,0.00,0.00,VWS V14.01,2013-02-09 09:23:00,
2013-02-09 04:25:00,17.7,15.8,29.66,ENE,68,9.0,20.0,92,0.00,,,0.00,0.00,VWS V14.01,2013-02-09 09:25:00,
2013-02-09 04:27:00,17.7,15.8,29.66,WNW,287,19.0,20.0,92,0.00,,,0.00,0.00,VWS V14.01,2013-02-09 09:27:00,
2013-02-09 04:28:00,17.7,15.8,29.66,WNW,303,10.0,20.0,92,0.00,,,0.00,0.00,VWS V14.01,2013-02-09 09:28:00,
2013-02-09 04:32:00,17.6,15.7,29.66,WNW,287,3.0,20.0,92,0.00,,,0.00,0.00,VWS V14.01,2013-02-09 09:32:00,
2013-02-09 04:35:00,17.6,15.7,29.65,West,281,7.0,20.0,92,0.00,,,0.00,0.00,VWS V14.01,2013-02-09 09:35:00,
2013-02-09 04:37:00,17.6,15.7,29.65,NNW,333,9.0,20.0,92,0.00,,,0.00,0.00,VWS V14.01,2013-02-09 09:37:00,
2013-02-09 04:39:00,17.5,15.6,29.65,WNW,303,16.0,20.0,92,0.00,,,0.00,0.00,VWS V14.01,2013-02-09 09:39:00,
2013-02-09 04:42:00,17.5,15.6,29.65,WNW,294,8.0,20.0,92,0.00,,,0.00,0.00,VWS V14.01,2013-02-09 09:42:00,
2013-02-09 04:44:00,17.5,15.6,29.65,NW,314,4.0,20.0,92,0.00,,,0.00,0.00,VWS V14.01,2013-02-09 09:44:00,
2013-02-09 04:45:00,17.5,15.6,29.65,North,360,10.0,20.0,92,0.00,,,0.00,0.00,VWS V14.01,2013-02-09 09:45:00,
2013-02-09 04:47:00,17.5,15.6,29.65,North,355,7.0,20.0,92,0.00,,,0.00,0.00,VWS V14.01,2013-02-09 09:47:00,
2013-02-09 04:50:00,17.5,15.6,29.65,NW,304,10.0,20.0,92,0.00,,,0.00,0.00,VWS V14.01,2013-02-09 09:50:00,
2013-02-09 04:52:00,17.5,15.6,29.65,NNW,333,10.0,20.0,92,0.00,,,0.00,0.00,VWS V14.01,2013-02-09 09:52:00,
2013-02-09 04:55:00,17.5,15.6,29.65,NNW,327,11.0,21.0,92,0.00,,,0.00,0.00,VWS V14.01,2013-02-09 09:55:00,
2013-02-09 04:59:00,17.4,15.5,29.65,NW,319,6.0,21.0,92,0.00,,,0.00,0.00,VWS V14.01,2013-02-09 09:59:00,
2013-02-09 05:01:00,17.4,15.5,29.65,West,274,9.0,21.0,92,0.00,,,0.00,0.00,VWS V14.01,2013-02-09 10:01:00,
2013-02-09 05:02:00,17.4,15.5,29.65,NNW,329,9.0,21.0,92,0.00,,,0.00,0.00,VWS V14.01,2013-02-09 10:02:00,
2013-02-09 05:04:00,17.4,15.5,29.65,NNW,335,15.0,21.0,92,0.00,,,0.00,0.00,VWS V14.01,2013-02-09 10:04:00,
2013-02-09 05:05:00,17.4,15.5,29.65,NNW,333,6.0,21.0,92,0.00,,,0.00,0.00,VWS V14.01,2013-02-09 10:05:00,
2013-02-09 05:07:00,17.4,15.5,29.65,NNW,333,16.0,22.0,92,0.00,,,0.00,0.00,VWS V14.01,2013-02-09 10:07:00,
2013-02-09 05:09:00,17.3,15.4,29.65,NNW,340,6.0,22.0,92,0.00,,,0.00,0.00,VWS V14.01,2013-02-09 10:09:00,
2013-02-09 05:12:00,17.3,15.4,29.65,WNW,290,14.0,22.0,92,0.00,,,0.00,0.00,VWS V14.01,2013-02-09 10:12:00,
2013-02-09 05:14:00,17.3,15.4,29.65,NW,311,9.0,22.0,92,0.00,,,0.00,0.00,VWS V14.01,2013-02-09 10:14:00,
2013-02-09 05:18:00,17.2,15.3,29.65,North,355,16.0,22.0,92,0.00,,,0.00,0.00,VWS V14.01,2013-02-09 10:18:00,
2013-02-09 05:21:00,17.2,15.3,29.66,NNW,331,8.0,23.0,92,0.00,,,0.00,0.00,VWS V14.01,2013-02-09 10:21:00,
2013-02-09 05:23:00,17.2,15.3,29.65,West,271,6.0,23.0,92,0.00,,,0.00,0.00,VWS V14.01,2013-02-09 10:23:00,
2013-02-09 05:24:00,17.2,15.3,29.66,West,279,9.0,23.0,92,0.00,,,0.00,0.00,VWS V14.01,2013-02-09 10:24:00,
2013-02-09 05:26:00,17.2,15.3,29.65,WNW,302,7.0,23.0,92,0.00,,,0.00,0.00,VWS V14.01,2013-02-09 10:26:00,
2013-02-09 05:28:00,17.2,15.3,29.66,North,355,16.0,23.0,92,0.00,,,0.00,0.00,VWS V14.01,2013-02-09 10:28:00,
2013-02-09 05:33:00,17.1,15.2,29.65,NW,304,7.0,23.0,92,0.00,,,0.00,0.00,VWS V14.01,2013-02-09 10:33:00,
2013-02-09 05:35:00,17.1,15.2,29.66,West,279,12.0,23.0,92,0.00,,,0.00,0.00,VWS V14.01,2013-02-09 10:35:00,
2013-02-09 05:38:00,17.0,15.1,29.66,NW,321,7.0,23.0,92,0.00,,,0.00,0.00,VWS V14.01,2013-02-09 10:38:00,
2013-02-09 05:40:00,17.0,15.1,29.66,NNW,341,10.0,23.0,92,0.00,,,0.00,0.00,VWS V14.01,2013-02-09 10:40:00,
2013-02-09 05:45:00,17.0,15.1,29.66,NNW,344,5.0,23.0,92,0.00,,,0.00,0.00,VWS V14.01,2013-02-09 10:45:00,
2013-02-09 05:46:00,16.9,14.7,29.66,NW,317,6.0,23.0,91,0.00,,,0.00,0.00,VWS V14.01,2013-02-09 10:46:00,
2013-02-09 05:50:00,16.9,15.0,29.66,WNW,292,7.0,23.0,92,0.00,,,0.00,0.00,VWS V14.01,2013-02-09 10:50:00,
2013-02-09 05:53:00,16.8,14.9,29.66,NNW,346,15.0,23.0,92,0.00,,,0.00,0.00,VWS V14.01,2013-02-09 10:53:00,
2013-02-09 05:55:00,16.8,14.9,29.66,NNW,330,4.0,23.0,92,0.00,,,0.00,0.00,VWS V14.01,2013-02-09 10:55:00,
2013-02-09 05:57:00,16.8,14.9,29.66,NW,310,9.0,23.0,92,0.00,,,0.00,0.00,VWS V14.01,2013-02-09 10:57:00,
2013-02-09 06:02:00,16.7,14.8,29.66,NNW,334,8.0,23.0,92,0.00,,,0.00,0.00,VWS V14.01,2013-02-09 11:02:00,
2013-02-09 06:05:00,16.7,14.8,29.66,NNW,331,7.0,23.0,92,0.00,,,0.00,0.00,VWS V14.01,2013-02-09 11:05:00,
2013-02-09 06:07:00,16.7,14.8,29.66,NNW,333,12.0,14.0,92,0.00,,,0.00,0.00,VWS V14.01,2013-02-09 11:07:00,
2013-02-09 06:09:00,16.7,14.8,29.66,NW,313,2.0,16.0,92,0.00,,,0.00,0.00,VWS V14.01,2013-02-09 11:09:00,
2013-02-09 06:10:00,16.6,14.7,29.67,WNW,286,9.0,16.0,92,0.00,,,0.00,0.00,VWS V14.01,2013-02-09 11:10:00,
2013-02-09 06:12:00,16.6,14.7,29.66,WNW,294,7.0,16.0,92,0.00,,,0.00,0.00,VWS V14.01,2013-02-09 11:12:00,
2013-02-09 06:14:00,16.6,14.7,29.67,WSW,247,13.0,16.0,92,0.00,,,0.00,0.00,VWS V14.01,2013-02-09 11:14:00,
2013-02-09 06:15:00,16.6,14.7,29.67,WSW,258,6.0,22.0,92,0.00,,,0.00,0.00,VWS V14.01,2013-02-09 11:15:00,
2013-02-09 06:17:00,16.6,14.4,29.67,NW,325,6.0,22.0,91,0.00,,,0.00,0.00,VWS V14.01,2013-02-09 11:17:00,
2013-02-09 06:19:00,16.5,14.3,29.67,North,5,15.0,22.0,91,0.00,,,0.00,0.00,VWS V14.01,2013-02-09 11:19:00,
2013-02-09 06:21:00,16.5,14.3,29.67,NNW,333,14.0,22.0,91,0.00,,,0.00,0.00,VWS V14.01,2013-02-09 11:21:00,
2013-02-09 06:24:00,16.4,14.2,29.67,NNW,338,10.0,22.0,91,0.00,,,0.00,0.00,VWS V14.01,2013-02-09 11:24:00,
2013-02-09 06:29:00,16.4,14.2,29.67,West,264,5.0,22.0,91,0.00,,,0.00,0.00,VWS V14.01,2013-02-09 11:29:00,
2013-02-09 06:31:00,16.4,14.2,29.67,NW,316,5.0,22.0,91,0.00,,,0.00,0.00,VWS V14.01,2013-02-09 11:31:00,
2013-02-09 06:34:00,16.3,14.1,29.68,WNW,290,10.0,22.0,91,0.00,,,0.00,0.00,VWS V14.01,2013-02-09 11:34:00,
2013-02-09 06:36:00,16.3,14.1,29.67,NNW,339,2.0,22.0,91,0.00,,,0.00,0.00,VWS V14.01,2013-02-09 11:36:00,
2013-02-09 06:38:00,16.3,14.1,29.67,NNW,327,12.0,22.0,91,0.00,,,0.00,0.00,VWS V14.01,2013-02-09 11:38:00,
2013-02-09 06:39:00,16.3,14.1,29.67,NNW,345,10.0,22.0,91,0.00,,,0.00,0.00,VWS V14.01,2013-02-09 11:39:00,
2013-02-09 06:43:00,16.2,14.0,29.67,NNW,348,7.0,22.0,91,0.00,,,0.00,0.00,VWS V14.01,2013-02-09 11:43:00,
2013-02-09 06:48:00,16.2,14.0,29.67,NW,319,4.0,22.0,91,0.00,,,0.00,0.00,VWS V14.01,2013-02-09 11:48:00,
2013-02-09 06:50:00,16.2,14.0,29.68,North,360,8.0,22.0,91,0.00,,,0.00,0.00,VWS V14.01,2013-02-09 11:50:00,
2013-02-09 06:51:00,16.2,14.0,29.68,NW,315,9.0,22.0,91,0.00,,,0.00,0.00,VWS V14.01,2013-02-09 11:51:00,
2013-02-09 06:53:00,16.2,14.0,29.68,West,265,6.0,22.0,91,0.00,,,0.00,0.00,VWS V14.01,2013-02-09 11:53:00,
2013-02-09 06:55:00,16.2,14.0,29.68,NNE,27,9.0,22.0,91,0.00,,,0.00,0.00,VWS V14.01,2013-02-09 11:55:00,
2013-02-09 07:00:00,16.1,13.9,29.68,NNW,340,6.0,22.0,91,0.00,,,0.00,0.00,VWS V14.01,2013-02-09 12:00:00,
2013-02-09 07:02:00,16.1,13.9,29.68,NNW,327,8.0,22.0,91,0.00,,,0.00,0.00,VWS V14.01,2013-02-09 12:02:00,
2013-02-09 07:03:00,16.1,13.9,29.69,NNW,343,11.0,22.0,91,0.00,,,0.00,0.00,VWS V14.01,2013-02-09 12:03:00,
2013-02-09 07:05:00,16.1,13.9,29.68,NW,309,10.0,22.0,91,0.00,,,0.00,5.00,VWS V14.01,2013-02-09 12:05:00,
2013-02-09 07:07:00,16.0,13.8,29.69,NNE,31,5.0,22.0,91,0.00,,,0.00,5.00,VWS V14.01,2013-02-09 12:07:00,
2013-02-09 07:10:00,16.0,13.8,29.69,NNW,336,6.0,22.0,91,0.00,,,0.00,7.00,VWS V14.01,2013-02-09 12:10:00,
2013-02-09 07:12:00,16.0,13.8,29.68,NW,313,9.0,22.0,91,0.00,,,0.00,7.00,VWS V14.01,2013-02-09 12:12:00,
2013-02-09 07:13:00,16.0,13.8,29.69,West,281,8.0,22.0,91,0.00,,,0.00,7.00,VWS V14.01,2013-02-09 12:13:00,
2013-02-09 07:17:00,15.9,13.7,29.69,NNW,336,7.0,22.0,91,0.00,,,0.00,9.00,VWS V14.01,2013-02-09 12:17:00,
2013-02-09 07:20:00,15.9,13.7,29.69,WNW,298,10.0,22.0,91,0.00,,,0.00,12.00,VWS V14.01,2013-02-09 12:20:00,
2013-02-09 07:22:00,15.9,13.7,29.69,NNW,335,4.0,22.0,91,0.00,,,0.00,14.00,VWS V14.01,2013-02-09 12:22:00,
2013-02-09 07:24:00,15.9,13.7,29.69,SW,235,2.0,22.0,91,0.00,,,0.00,16.00,VWS V14.01,2013-02-09 12:24:00,
2013-02-09 07:25:00,15.9,13.7,29.69,WNW,292,7.0,22.0,91,0.00,,,0.00,18.00,VWS V14.01,2013-02-09 12:25:00,
2013-02-09 07:27:00,15.9,13.7,29.69,NW,318,9.0,22.0,91,0.00,,,0.00,19.00,VWS V14.01,2013-02-09 12:27:00,
2013-02-09 07:30:00,15.8,13.6,29.69,NW,315,5.0,22.0,91,0.00,,,0.00,23.00,VWS V14.01,2013-02-09 12:30:00,
2013-02-09 07:32:00,15.8,13.6,29.70,NW,326,20.0,22.0,91,0.00,,,0.00,23.00,VWS V14.01,2013-02-09 12:32:00,
2013-02-09 07:34:00,15.8,13.6,29.69,NW,313,6.0,22.0,91,0.00,,,0.00,25.00,VWS V14.01,2013-02-09 12:34:00,
2013-02-09 07:37:00,15.8,13.6,29.70,NNW,329,8.0,25.0,91,0.00,,,0.00,25.00,VWS V14.01,2013-02-09 12:37:00,
2013-02-09 07:39:00,15.7,13.5,29.70,NW,307,10.0,25.0,91,0.00,,,0.00,26.00,VWS V14.01,2013-02-09 12:39:00,
2013-02-09 07:41:00,15.8,13.6,29.70,NW,315,7.0,25.0,91,0.00,,,0.00,26.00,VWS V14.01,2013-02-09 12:41:00,
2013-02-09 07:42:00,15.7,13.5,29.70,NW,306,19.0,25.0,91,0.00,,,0.00,26.00,VWS V14.01,2013-02-09 12:42:00,
2013-02-09 07:44:00,15.7,13.5,29.70,NW,325,5.0,25.0,91,0.00,,,0.00,26.00,VWS V14.01,2013-02-09 12:44:00,
2013-02-09 07:46:00,15.7,13.5,29.70,West,277,5.0,25.0,91,0.00,,,0.00,28.00,VWS V14.01,2013-02-09 12:46:00,
2013-02-09 07:49:00,15.7,13.5,29.70,NNW,342,6.0,25.0,91,0.00,,,0.00,33.00,VWS V14.01,2013-02-09 12:49:00,
2013-02-09 07:53:00,15.7,13.5,29.70,West,273,6.0,25.0,91,0.00,,,0.00,37.00,VWS V14.01,2013-02-09 12:53:00,
2013-02-09 07:56:00,15.6,13.4,29.70,NNW,330,8.0,25.0,91,0.00,,,0.00,42.00,VWS V14.01,2013-02-09 12:56:00,
2013-02-09 07:58:00,15.6,13.4,29.71,NW,306,7.0,25.0,91,0.00,,,0.00,42.00,VWS V14.01,2013-02-09 12:58:00,
2013-02-09 08:01:00,15.6,13.4,29.71,NNW,337,15.0,25.0,91,0.00,,,0.00,46.00,VWS V14.01,2013-02-09 13:01:00,
2013-02-09 08:06:00,15.6,13.4,29.71,West,278,12.0,12.0,91,0.00,,,0.00,51.00,VWS V14.01,2013-02-09 13:06:00,
2013-02-09 08:08:00,15.5,13.4,29.72,NW,318,8.0,18.0,91,0.00,,,0.00,53.00,VWS V14.01,2013-02-09 13:08:00,
2013-02-09 08:12:00,15.5,13.4,29.73,NW,305,10.0,19.0,91,0.00,,,0.00,56.00,VWS V14.01,2013-02-09 13:12:00,
2013-02-09 08:14:00,15.5,13.4,29.72,WNW,294,6.0,19.0,91,0.00,,,0.00,58.00,VWS V14.01,2013-02-09 13:14:00,
2013-02-09 08:15:00,15.5,13.4,29.72,NW,317,8.0,19.0,91,0.00,,,0.00,56.00,VWS V14.01,2013-02-09 13:15:00,
2013-02-09 08:17:00,15.5,13.4,29.72,WNW,293,6.0,19.0,91,0.00,,,0.00,54.00,VWS V14.01,2013-02-09 13:17:00,
2013-02-09 08:19:00,15.5,13.4,29.73,North,360,13.0,21.0,91,0.00,,,0.00,54.00,VWS V14.01,2013-02-09 13:19:00,
2013-02-09 08:21:00,15.5,13.4,29.73,West,265,6.0,21.0,91,0.00,,,0.00,53.00,VWS V14.01,2013-02-09 13:21:00,
2013-02-09 08:22:00,15.4,13.2,29.73,North,355,12.0,22.0,91,0.00,,,0.00,53.00,VWS V14.01,2013-02-09 13:22:00,
2013-02-09 08:27:00,15.4,13.2,29.73,NNW,343,7.0,22.0,91,0.00,,,0.00,54.00,VWS V14.01,2013-02-09 13:27:00,
2013-02-09 08:31:00,15.4,13.2,29.73,NW,325,9.0,22.0,91,0.00,,,0.00,60.00,VWS V14.01,2013-02-09 13:31:00,
2013-02-09 08:32:00,15.4,13.2,29.73,WNW,291,7.0,22.0,91,0.00,,,0.00,60.00,VWS V14.01,2013-02-09 13:32:00,
2013-02-09 08:36:00,15.4,13.2,29.73,NW,326,16.0,22.0,91,0.00,,,0.00,58.00,VWS V14.01,2013-02-09 13:36:00,
2013-02-09 08:37:00,15.4,13.2,29.73,NNW,342,10.0,25.0,91,0.00,,,0.00,53.00,VWS V14.01,2013-02-09 13:37:00,
2013-02-09 08:41:00,15.3,13.1,29.74,NW,306,15.0,25.0,91,0.00,,,0.00,56.00,VWS V14.01,2013-02-09 13:41:00,
2013-02-09 08:43:00,15.3,13.1,29.74,NW,313,8.0,25.0,91,0.00,,,0.00,53.00,VWS V14.01,2013-02-09 13:43:00,
2013-02-09 08:44:00,15.3,13.1,29.74,WNW,291,8.0,25.0,91,0.00,,,0.00,53.00,VWS V14.01,2013-02-09 13:44:00,
2013-02-09 08:46:00,15.3,13.1,29.74,NNW,332,15.0,25.0,91,0.00,,,0.00,53.00,VWS V14.01,2013-02-09 13:46:00,
2013-02-09 08:51:00,15.3,13.1,29.75,NNW,327,21.0,26.0,91,0.00,,,0.00,60.00,VWS V14.01,2013-02-09 13:51:00,
2013-02-09 08:55:00,15.2,13.1,29.75,NNW,332,13.0,26.0,91,0.00,,,0.00,69.00,VWS V14.01,2013-02-09 13:55:00,
2013-02-09 09:00:00,15.2,13.1,29.75,NW,313,7.0,26.0,91,0.00,,,0.00,77.00,VWS V14.01,2013-02-09 14:00:00,
2013-02-09 09:02:00,15.2,13.1,29.75,NNW,348,15.0,26.0,91,0.00,,,0.00,79.00,VWS V14.01,2013-02-09 14:02:00,
2013-02-09 09:05:00,15.1,12.9,29.74,NW,315,10.0,26.0,91,0.00,,,0.00,84.00,VWS V14.01,2013-02-09 14:05:00,
2013-02-09 09:07:00,15.1,12.9,29.75,NNW,331,11.0,15.0,91,0.00,,,0.00,84.00,VWS V14.01,2013-02-09 14:07:00,
2013-02-09 09:12:00,15.1,12.9,29.75,WNW,298,4.0,23.0,91,0.00,,,0.00,93.00,VWS V14.01,2013-02-09 14:12:00,
2013-02-09 09:15:00,15.0,12.9,29.75,NNW,330,15.0,23.0,91,0.00,,,0.00,97.00,VWS V14.01,2013-02-09 14:15:00,
2013-02-09 09:17:00,15.0,12.9,29.75,NW,321,12.0,23.0,91,0.00,,,0.00,104.00,VWS V14.01,2013-02-09 14:17:00,
2013-02-09 09:19:00,15.0,12.9,29.75,NNW,329,11.0,23.0,91,0.00,,,0.00,104.00,VWS V14.01,2013-02-09 14:19:00,
2013-02-09 09:22:00,15.0,12.9,29.75,WNW,296,18.0,23.0,91,0.00,,,0.00,105.00,VWS V14.01,2013-02-09 14:22:00,
2013-02-09 09:24:00,15.0,12.9,29.75,NNW,335,12.0,23.0,91,0.00,,,0.00,104.00,VWS V14.01,2013-02-09 14:24:00,
2013-02-09 09:27:00,15.0,12.9,29.75,NW,314,9.0,23.0,91,0.00,,,0.00,107.00,VWS V14.01,2013-02-09 14:27:00,
2013-02-09 09:31:00,15.0,12.9,29.75,NNW,340,14.0,23.0,91,0.00,,,0.00,107.00,VWS V14.01,2013-02-09 14:31:00,
2013-02-09 09:34:00,15.0,12.9,29.75,NNW,329,10.0,23.0,91,0.00,,,0.00,118.00,VWS V14.01,2013-02-09 14:34:00,
2013-02-09 09:36:00,15.0,12.9,29.75,NW,319,8.0,23.0,91,0.00,,,0.00,116.00,VWS V14.01,2013-02-09 14:36:00,
2013-02-09 09:39:00,15.0,12.9,29.75,NNW,327,8.0,23.0,91,0.00,,,0.00,120.00,VWS V14.01,2013-02-09 14:39:00,
2013-02-09 09:43:00,15.0,12.9,29.75,WNW,300,8.0,25.0,91,0.00,,,0.00,123.00,VWS V14.01,2013-02-09 14:43:00,
2013-02-09 09:44:00,14.9,12.8,29.76,NNW,348,11.0,25.0,91,0.00,,,0.00,130.00,VWS V14.01,2013-02-09 14:44:00,
2013-02-09 09:46:00,14.9,12.8,29.75,WNW,298,7.0,25.0,91,0.00,,,0.00,130.00,VWS V14.01,2013-02-09 14:46:00,
2013-02-09 09:48:00,14.9,12.8,29.75,West,276,10.0,25.0,91,0.00,,,0.00,127.00,VWS V14.01,2013-02-09 14:48:00,
2013-02-09 09:51:00,14.9,12.8,29.76,WSW,255,7.0,25.0,91,0.00,,,0.00,125.00,VWS V14.01,2013-02-09 14:51:00,
2013-02-09 09:53:00,14.9,12.8,29.76,WNW,286,6.0,25.0,91,0.00,,,0.00,128.00,VWS V14.01,2013-02-09 14:53:00,
2013-02-09 09:54:00,14.9,12.8,29.75,North,355,3.0,25.0,91,0.00,,,0.00,128.00,VWS V14.01,2013-02-09 14:54:00,
2013-02-09 09:58:00,14.9,12.8,29.76,NNW,329,11.0,25.0,91,0.00,,,0.00,132.00,VWS V14.01,2013-02-09 14:58:00,
2013-02-09 10:00:00,14.9,12.8,29.76,NNW,328,8.0,25.0,91,0.00,,,0.00,130.00,VWS V14.01,2013-02-09 15:00:00,
2013-02-09 10:03:00,14.8,12.6,29.76,NW,326,5.0,25.0,91,0.00,,,0.00,135.00,VWS V14.01,2013-02-09 15:03:00,
2013-02-09 10:05:00,14.9,12.8,29.77,NNW,346,6.0,25.0,91,0.00,,,0.00,139.00,VWS V14.01,2013-02-09 15:05:00,
2013-02-09 10:08:00,14.8,12.6,29.78,NW,318,9.0,30.0,91,0.00,,,0.00,146.00,VWS V14.01,2013-02-09 15:08:00,
2013-02-09 10:10:00,14.8,12.6,29.78,WNW,283,14.0,30.0,91,0.00,,,0.00,148.00,VWS V14.01,2013-02-09 15:10:00,
2013-02-09 10:12:00,14.8,12.6,29.78,NNW,346,12.0,30.0,91,0.00,,,0.00,153.00,VWS V14.01,2013-02-09 15:12:00,
2013-02-09 10:13:00,14.8,12.6,29.78,North,350,7.0,30.0,91,0.00,,,0.00,155.00,VWS V14.01,2013-02-09 15:13:00,
2013-02-09 10:15:00,14.7,12.6,29.79,West,275,7.0,30.0,91,0.00,,,0.00,163.00,VWS V14.01,2013-02-09 15:15:00,
2013-02-09 10:17:00,14.8,12.6,29.79,NNW,342,10.0,30.0,91,0.00,,,0.00,167.00,VWS V14.01,2013-02-09 15:17:00,
2013-02-09 10:20:00,14.7,12.6,29.79,NW,323,10.0,30.0,91,0.00,,,0.00,169.00,VWS V14.01,2013-02-09 15:20:00,
2013-02-09 10:22:00,14.7,12.6,29.80,WNW,299,8.0,30.0,91,0.00,,,0.00,165.00,VWS V14.01,2013-02-09 15:22:00,
2013-02-09 10:23:00,14.7,12.6,29.79,NW,318,4.0,30.0,91,0.00,,,0.00,167.00,VWS V14.01,2013-02-09 15:23:00,
2013-02-09 10:27:00,14.7,12.6,29.79,NNW,342,8.0,30.0,91,0.00,,,0.00,169.00,VWS V14.01,2013-02-09 15:27:00,
2013-02-09 10:28:00,14.7,12.6,29.79,West,281,6.0,30.0,91,0.00,,,0.00,174.00,VWS V14.01,2013-02-09 15:28:00,
2013-02-09 10:32:00,14.7,12.6,29.79,NW,315,6.0,30.0,91,0.00,,,0.00,186.00,VWS V14.01,2013-02-09 15:32:00,
2013-02-09 10:34:00,14.7,12.6,29.78,NNW,333,13.0,30.0,91,0.00,,,0.00,195.00,VWS V14.01,2013-02-09 15:34:00,
2013-02-09 10:35:00,14.7,12.6,29.78,WNW,287,6.0,30.0,91,0.00,,,0.00,206.00,VWS V14.01,2013-02-09 15:35:00,
2013-02-09 10:39:00,14.7,12.6,29.79,WNW,298,10.0,30.0,91,0.00,,,0.00,209.00,VWS V14.01,2013-02-09 15:39:00,
2013-02-09 10:40:00,14.7,12.6,29.79,NNW,339,12.0,30.0,91,0.00,,,0.00,211.00,VWS V14.01,2013-02-09 15:40:00,
2013-02-09 10:42:00,14.7,12.6,29.79,NW,317,9.0,30.0,91,0.00,,,0.00,213.00,VWS V14.01,2013-02-09 15:42:00,
2013-02-09 10:46:00,14.7,12.6,29.80,NNW,341,6.0,30.0,91,0.00,,,0.00,209.00,VWS V14.01,2013-02-09 15:46:00,
2013-02-09 10:51:00,14.7,12.6,29.80,NNW,340,8.0,30.0,91,0.00,,,0.00,199.00,VWS V14.01,2013-02-09 15:51:00,
2013-02-09 10:54:00,14.7,12.6,29.80,NNW,333,13.0,30.0,91,0.00,,,0.00,204.00,VWS V14.01,2013-02-09 15:54:00,
2013-02-09 10:56:00,14.7,12.6,29.81,NW,315,21.0,30.0,91,0.00,,,0.00,206.00,VWS V14.01,2013-02-09 15:56:00,
2013-02-09 10:59:00,14.7,12.6,29.81,NNW,346,8.0,30.0,91,0.00,,,0.00,211.00,VWS V14.01,2013-02-09 15:59:00,
2013-02-09 11:03:00,14.7,12.6,29.81,WNW,292,5.0,30.0,91,0.00,,,0.00,214.00,VWS V14.01,2013-02-09 16:03:00,
2013-02-09 11:06:00,14.7,12.6,29.81,NNW,343,11.0,12.0,91,0.00,,,0.00,232.00,VWS V14.01,2013-02-09 16:06:00,
2013-02-09 11:08:00,14.7,12.6,29.81,West,273,8.0,15.0,91,0.00,,,0.00,246.00,VWS V14.01,2013-02-09 16:08:00,
2013-02-09 11:11:00,14.8,12.6,29.81,NNW,344,9.0,23.0,91,0.00,,,0.00,258.00,VWS V14.01,2013-02-09 16:11:00,
2013-02-09 11:13:00,14.7,12.6,29.81,NNW,343,18.0,24.0,91,0.00,,,0.00,253.00,VWS V14.01,2013-02-09 16:13:00,
2013-02-09 11:15:00,14.8,12.6,29.82,NNW,331,12.0,24.0,91,0.00,,,0.00,255.00,VWS V14.01,2013-02-09 16:15:00,
2013-02-09 11:18:00,14.8,12.6,29.82,NW,307,4.0,24.0,91,0.00,,,0.00,225.00,VWS V14.01,2013-02-09 16:18:00,
2013-02-09 11:22:00,14.8,12.6,29.81,NNW,333,7.0,24.0,91,0.00,,,0.00,221.00,VWS V14.01,2013-02-09 16:22:00,
2013-02-09 11:24:00,14.9,12.8,29.82,NW,315,16.0,24.0,91,0.00,,,0.00,216.00,VWS V14.01,2013-02-09 16:24:00,
2013-02-09 11:29:00,15.0,12.9,29.82,NNW,329,16.0,24.0,91,0.00,,,0.00,218.00,VWS V14.01,2013-02-09 16:29:00,
2013-02-09 11:30:00,15.0,12.9,29.82,NW,321,13.0,24.0,91,0.00,,,0.00,216.00,VWS V14.01,2013-02-09 16:30:00,
2013-02-09 11:32:00,15.0,12.9,29.82,NNW,328,8.0,24.0,91,0.00,,,0.00,218.00,VWS V14.01,2013-02-09 16:32:00,
2013-02-09 11:34:00,15.0,12.9,29.82,NW,324,15.0,24.0,91,0.00,,,0.00,223.00,VWS V14.01,2013-02-09 16:34:00,
2013-02-09 11:37:00,15.1,12.9,29.82,WNW,289,7.0,24.0,91,0.00,,,0.00,234.00,VWS V14.01,2013-02-09 16:37:00,
2013-02-09 11:39:00,15.2,13.1,29.82,WNW,301,4.0,24.0,91,0.00,,,0.00,243.00,VWS V14.01,2013-02-09 16:39:00,
2013-02-09 11:42:00,15.2,13.1,29.82,NNW,336,6.0,24.0,91,0.00,,,0.00,255.00,VWS V14.01,2013-02-09 16:42:00,
2013-02-09 11:44:00,15.2,13.1,29.82,WNW,298,10.0,24.0,91,0.00,,,0.00,257.00,VWS V14.01,2013-02-09 16:44:00,
2013-02-09 11:49:00,15.2,13.1,29.82,NNW,337,12.0,24.0,91,0.00,,,0.00,269.00,VWS V14.01,2013-02-09 16:49:00,
2013-02-09 11:51:00,15.3,13.1,29.82,NW,317,7.0,24.0,91,0.00,,,0.00,288.00,VWS V14.01,2013-02-09 16:51:00,
2013-02-09 11:54:00,15.3,13.1,29.82,North,355,11.0,24.0,91,0.00,,,0.00,304.00,VWS V14.01,2013-02-09 16:54:00,
2013-02-09 11:56:00,15.3,13.1,29.82,NW,326,19.0,24.0,91,0.00,,,0.00,308.00,VWS V14.01,2013-02-09 16:56:00,
2013-02-09 11:57:00,15.3,13.1,29.82,NW,311,10.0,24.0,91,0.00,,,0.00,316.00,VWS V14.01,2013-02-09 16:57:00,
2013-02-09 12:01:00,15.4,13.2,29.82,West,266,4.0,24.0,91,0.00,,,0.00,330.00,VWS V14.01,2013-02-09 17:01:00,
2013-02-09 12:04:00,15.4,13.2,29.83,NNW,338,5.0,24.0,91,0.00,,,0.00,348.00,VWS V14.01,2013-02-09 17:04:00,
2013-02-09 12:05:00,15.4,13.2,29.83,WNW,302,10.0,24.0,91,0.00,,,0.00,353.00,VWS V14.01,2013-02-09 17:05:00,
2013-02-09 12:06:00,15.4,13.2,29.83,NW,313,9.0,15.0,91,0.00,,,0.00,362.00,VWS V14.01,2013-02-09 17:06:00,
2013-02-09 12:08:00,15.5,13.4,29.83,North,355,12.0,21.0,91,0.00,,,0.00,380.00,VWS V14.01,2013-02-09 17:08:00,
2013-02-09 12:11:00,15.5,13.4,29.83,West,280,8.0,21.0,91,0.00,,,0.00,381.00,VWS V14.01,2013-02-09 17:11:00,
2013-02-09 12:16:00,15.7,13.5,29.83,NNW,340,14.0,21.0,91,0.00,,,0.00,355.00,VWS V14.01,2013-02-09 17:16:00,
2013-02-09 12:18:00,15.8,13.6,29.83,NNW,332,5.0,21.0,91,0.00,,,0.00,329.00,VWS V14.01,2013-02-09 17:18:00,
2013-02-09 12:21:00,15.9,13.7,29.83,North,10,10.0,21.0,91,0.00,,,0.00,353.00,VWS V14.01,2013-02-09 17:21:00,
2013-02-09 12:23:00,16.0,13.8,29.83,WNW,299,6.0,21.0,91,0.00,,,0.00,306.00,VWS V14.01,2013-02-09 17:23:00,
2013-02-09 12:26:00,16.1,13.9,29.84,NW,304,6.0,21.0,91,0.00,,,0.00,297.00,VWS V14.01,2013-02-09 17:26:00,
2013-02-09 12:28:00,16.1,13.9,29.84,NNW,346,10.0,21.0,91,0.00,,,0.00,294.00,VWS V14.01,2013-02-09 17:28:00,
2013-02-09 12:30:00,16.2,14.0,29.84,North,350,7.0,21.0,91,0.00,,,0.00,290.00,VWS V14.01,2013-02-09 17:30:00,
2013-02-09 12:32:00,16.3,14.1,29.84,NNW,346,13.0,21.0,91,0.00,,,0.00,343.00,VWS V14.01,2013-02-09 17:32:00,
2013-02-09 12:33:00,16.3,14.1,29.84,NW,313,12.0,21.0,91,0.00,,,0.00,304.00,VWS V14.01,2013-02-09 17:33:00,
2013-02-09 12:35:00,16.4,14.2,29.84,NNW,344,12.0,21.0,91,0.00,,,0.00,272.00,VWS V14.01,2013-02-09 17:35:00,
2013-02-09 12:37:00,16.4,14.2,29.84,North,350,9.0,21.0,91,0.00,,,0.00,239.00,VWS V14.01,2013-02-09 17:37:00,
2013-02-09 12:40:00,16.6,14.4,29.84,NNW,329,8.0,21.0,91,0.00,,,0.00,234.00,VWS V14.01,2013-02-09 17:40:00,
2013-02-09 12:44:00,16.7,14.8,29.84,NNW,338,13.0,21.0,92,0.00,,,0.00,244.00,VWS V14.01,2013-02-09 17:44:00,
2013-02-09 12:45:00,16.8,14.9,29.84,NW,318,8.0,21.0,92,0.00,,,0.00,227.00,VWS V14.01,2013-02-09 17:45:00,
2013-02-09 12:49:00,16.8,14.9,29.85,NW,310,6.0,21.0,92,0.00,,,0.00,236.00,VWS V14.01,2013-02-09 17:49:00,
2013-02-09 12:52:00,16.9,14.7,29.85,NW,311,4.0,21.0,91,0.00,,,0.00,241.00,VWS V14.01,2013-02-09 17:52:00,
2013-02-09 12:54:00,17.0,14.8,29.85,WNW,285,10.0,23.0,91,0.00,,,0.00,230.00,VWS V14.01,2013-02-09 17:54:00,
2013-02-09 12:55:00,17.0,14.8,29.85,NW,308,2.0,23.0,91,0.00,,,0.00,230.00,VWS V14.01,2013-02-09 17:55:00,
2013-02-09 12:59:00,17.1,15.2,29.85,WNW,297,6.0,23.0,92,0.00,,,0.00,230.00,VWS V14.01,2013-02-09 17:59:00,
2013-02-09 13:04:00,17.2,15.3,29.85,NNW,334,11.0,23.0,92,0.00,,,0.00,313.00,VWS V14.01,2013-02-09 18:04:00,
2013-02-09 13:05:00,17.2,15.3,29.85,NNW,341,10.0,23.0,92,0.00,,,0.00,299.00,VWS V14.01,2013-02-09 18:05:00,
2013-02-09 13:06:00,17.2,15.3,29.85,North,360,3.0,10.0,92,0.00,,,0.00,299.00,VWS V14.01,2013-02-09 18:06:00,
2013-02-09 13:11:00,17.3,15.4,29.85,NW,316,5.0,16.0,92,0.00,,,0.00,279.00,VWS V14.01,2013-02-09 18:11:00,
2013-02-09 13:12:00,17.4,15.5,29.85,NW,315,5.0,16.0,92,0.00,,,0.00,295.00,VWS V14.01,2013-02-09 18:12:00,
2013-02-09 13:16:00,17.5,15.6,29.85,NW,321,8.0,16.0,92,0.00,,,0.00,274.00,VWS V14.01,2013-02-09 18:16:00,
2013-02-09 13:18:00,17.5,15.6,29.86,West,280,4.0,16.0,92,0.00,,,0.00,278.00,VWS V14.01,2013-02-09 18:18:00,
2013-02-09 13:21:00,17.7,15.8,29.86,NW,325,12.0,18.0,92,0.00,,,0.00,288.00,VWS V14.01,2013-02-09 18:21:00,
2013-02-09 13:23:00,17.7,15.8,29.86,NNW,335,5.0,18.0,92,0.00,,,0.00,313.00,VWS V14.01,2013-02-09 18:23:00,
2013-02-09 13:24:00,17.8,15.9,29.86,WSW,257,5.0,18.0,92,0.00,,,0.00,271.00,VWS V14.01,2013-02-09 18:24:00,
2013-02-09 13:28:00,17.9,16.0,29.86,West,268,4.0,19.0,92,0.00,,,0.00,283.00,VWS V14.01,2013-02-09 18:28:00,
2013-02-09 13:30:00,18.0,16.1,29.87,West,264,11.0,19.0,92,0.00,,,0.00,306.00,VWS V14.01,2013-02-09 18:30:00,
2013-02-09 13:31:00,18.1,16.2,29.87,WNW,296,4.0,19.0,92,0.00,,,0.00,302.00,VWS V14.01,2013-02-09 18:31:00,
2013-02-09 13:33:00,18.1,16.2,29.86,NW,315,7.0,19.0,92,0.00,,,0.00,329.00,VWS V14.01,2013-02-09 18:33:00,
2013-02-09 13:36:00,18.2,16.3,29.87,North,355,9.0,19.0,92,0.00,,,0.00,478.00,VWS V14.01,2013-02-09 18:36:00,
2013-02-09 13:38:00,18.3,16.4,29.87,NNW,338,10.0,19.0,92,0.00,,,0.00,218.00,VWS V14.01,2013-02-09 18:38:00,
2013-02-09 13:40:00,18.4,16.5,29.87,WNW,286,6.0,19.0,92,0.00,,,0.00,410.00,VWS V14.01,2013-02-09 18:40:00,
2013-02-09 13:41:00,18.5,16.6,29.87,NW,306,0.0,19.0,92,0.00,,,0.00,522.00,VWS V14.01,2013-02-09 18:41:00,
2013-02-09 13:45:00,18.6,16.7,29.87,West,275,2.0,19.0,92,0.00,,,0.00,527.00,VWS V14.01,2013-02-09 18:45:00,
2013-02-09 13:47:00,18.7,16.8,29.88,WNW,294,3.0,19.0,92,0.00,,,0.00,438.00,VWS V14.01,2013-02-09 18:47:00,
2013-02-09 13:48:00,18.8,16.9,29.88,West,281,0.0,19.0,92,0.00,,,0.00,438.00,VWS V14.01,2013-02-09 18:48:00,
2013-02-09 13:50:00,18.9,17.0,29.88,West,279,8.0,19.0,92,0.00,,,0.00,489.00,VWS V14.01,2013-02-09 18:50:00,
2013-02-09 13:53:00,19.0,17.1,29.88,NNW,327,5.0,22.0,92,0.00,,,0.00,457.00,VWS V14.01,2013-02-09 18:53:00,
2013-02-09 13:55:00,19.1,17.2,29.88,West,261,8.0,22.0,92,0.00,,,0.00,401.00,VWS V14.01,2013-02-09 18:55:00,
2013-02-09 13:59:00,19.2,17.3,29.88,NNW,330,11.0,22.0,92,0.00,,,0.00,343.00,VWS V14.01,2013-02-09 18:59:00,
2013-02-09 14:00:00,19.3,17.4,29.88,NNW,338,7.0,22.0,92,0.00,,,0.00,244.00,VWS V14.01,2013-02-09 19:00:00,
2013-02-09 14:02:00,19.3,17.4,29.88,WNW,283,5.0,22.0,92,0.00,,,0.00,206.00,VWS V14.01,2013-02-09 19:02:00,
2013-02-09 14:04:00,19.2,17.3,29.89,WNW,296,7.0,22.0,92,0.00,,,0.00,227.00,VWS V14.01,2013-02-09 19:04:00,
2013-02-09 14:05:00,19.2,17.3,29.89,NNW,339,4.0,6.0,92,0.00,,,0.00,367.00,VWS V14.01,2013-02-09 19:05:00,
2013-02-09 14:07:00,19.2,17.3,29.89,NW,321,11.0,11.0,92,0.00,,,0.00,390.00,VWS V14.01,2013-02-09 19:07:00,
2013-02-09 14:12:00,19.1,17.2,29.89,West,281,12.0,18.0,92,0.00,,,0.00,207.00,VWS V14.01,2013-02-09 19:12:00,
2013-02-09 14:14:00,19.1,17.2,29.89,WNW,302,18.0,18.0,92,0.00,,,0.00,237.00,VWS V14.01,2013-02-09 19:14:00,
2013-02-09 14:16:00,19.1,17.2,29.89,West,265,9.0,20.0,92,0.00,,,0.00,357.00,VWS V14.01,2013-02-09 19:16:00,
2013-02-09 14:17:00,19.0,17.1,29.89,NNW,340,6.0,20.0,92,0.00,,,0.00,214.00,VWS V14.01,2013-02-09 19:17:00,
2013-02-09 14:21:00,18.9,17.0,29.89,WNW,284,7.0,20.0,92,0.00,,,0.00,401.00,VWS V14.01,2013-02-09 19:21:00,
2013-02-09 14:24:00,18.8,16.9,29.90,WNW,300,5.0,25.0,92,0.00,,,0.00,411.00,VWS V14.01,2013-02-09 19:24:00,
2013-02-09 14:26:00,18.8,16.9,29.90,NW,315,10.0,25.0,92,0.00,,,0.00,387.00,VWS V14.01,2013-02-09 19:26:00,
2013-02-09 14:28:00,18.8,16.9,29.90,WNW,287,11.0,25.0,92,0.00,,,0.00,385.00,VWS V14.01,2013-02-09 19:28:00,
2013-02-09 14:31:00,18.8,16.9,29.90,NW,318,7.0,27.0,92,0.00,,,0.00,371.00,VWS V14.01,2013-02-09 19:31:00,
2013-02-09 14:33:00,18.8,16.9,29.89,North,355,9.0,27.0,92,0.00,,,0.00,360.00,VWS V14.01,2013-02-09 19:33:00,
2013-02-09 14:36:00,18.8,16.9,29.90,West,275,5.0,27.0,92,0.00,,,0.00,258.00,VWS V14.01,2013-02-09 19:36:00,
2013-02-09 14:38:00,18.8,16.9,29.90,NNW,329,10.0,27.0,92,0.00,,,0.00,250.00,VWS V14.01,2013-02-09 19:38:00,
2013-02-09 14:40:00,18.8,16.9,29.90,NNW,345,12.0,27.0,92,0.00,,,0.00,262.00,VWS V14.01,2013-02-09 19:40:00,
2013-02-09 14:41:00,18.8,16.9,29.90,NW,326,6.0,27.0,92,0.00,,,0.00,302.00,VWS V14.01,2013-02-09 19:41:00,
2013-02-09 14:46:00,18.9,17.0,29.90,NNW,346,11.0,27.0,92,0.00,,,0.00,279.00,VWS V14.01,2013-02-09 19:46:00,
2013-02-09 14:48:00,18.9,17.0,29.91,NW,325,12.0,27.0,92,0.00,,,0.00,290.00,VWS V14.01,2013-02-09 19:48:00,
2013-02-09 14:50:00,18.8,16.9,29.91,NNW,337,5.0,27.0,92,0.00,,,0.00,320.00,VWS V14.01,2013-02-09 19:50:00,
2013-02-09 14:52:00,18.9,17.0,29.91,NNW,337,6.0,27.0,92,0.00,,,0.00,311.00,VWS V14.01,2013-02-09 19:52:00,
2013-02-09 14:53:00,18.9,17.0,29.92,NNW,339,9.0,27.0,92,0.00,,,0.00,299.00,VWS V14.01,2013-02-09 19:53:00,
2013-02-09 14:57:00,18.9,17.0,29.91,NNW,340,6.0,27.0,92,0.00,,,0.00,178.00,VWS V14.01,2013-02-09 19:57:00,
2013-02-09 14:58:00,18.9,17.0,29.91,NNW,331,6.0,27.0,92,0.00,,,0.00,216.00,VWS V14.01,2013-02-09 19:58:00,
2013-02-09 15:00:00,18.9,17.0,29.91,NNW,331,13.0,27.0,92,0.00,,,0.00,264.00,VWS V14.01,2013-02-09 20:00:00,
2013-02-09 15:03:00,18.9,17.0,29.92,NNW,327,4.0,27.0,92,0.00,,,0.00,237.00,VWS V14.01,2013-02-09 20:03:00,
2013-02-09 15:05:00,18.9,17.0,29.91,NNW,332,10.0,27.0,92,0.00,,,0.00,229.00,VWS V14.01,2013-02-09 20:05:00,
2013-02-09 15:07:00,18.9,17.0,29.92,NNW,347,15.0,16.0,92,0.00,,,0.00,179.00,VWS V14.01,2013-02-09 20:07:00,
2013-02-09 15:10:00,19.0,17.1,29.92,NNW,340,12.0,20.0,92,0.00,,,0.00,234.00,VWS V14.01,2013-02-09 20:10:00,
2013-02-09 15:12:00,18.9,17.0,29.93,NNW,330,4.0,20.0,92,0.00,,,0.00,169.00,VWS V14.01,2013-02-09 20:12:00,
2013-02-09 15:15:00,18.9,17.0,29.93,WNW,287,8.0,20.0,92,0.00,,,0.00,204.00,VWS V14.01,2013-02-09 20:15:00,
2013-02-09 15:17:00,19.0,17.1,29.93,NNW,329,4.0,20.0,92,0.00,,,0.00,204.00,VWS V14.01,2013-02-09 20:17:00,
2013-02-09 15:21:00,19.1,17.2,29.93,NNE,17,12.0,20.0,92,0.00,,,0.00,162.00,VWS V14.01,2013-02-09 20:21:00,
2013-02-09 15:22:00,19.1,17.2,29.93,West,267,6.0,20.0,92,0.00,,,0.00,158.00,VWS V14.01,2013-02-09 20:22:00,
2013-02-09 15:24:00,19.1,17.2,29.93,NW,322,22.0,22.0,92,0.00,,,0.00,155.00,VWS V14.01,2013-02-09 20:24:00,
2013-02-09 15:26:00,19.1,17.2,29.93,NNW,331,6.0,22.0,92,0.00,,,0.00,139.00,VWS V14.01,2013-02-09 20:26:00,
2013-02-09 15:29:00,19.1,17.2,29.94,North,351,6.0,22.0,92,0.00,,,0.00,128.00,VWS V14.01,2013-02-09 20:29:00,
2013-02-09 15:31:00,19.1,17.2,29.93,NW,319,8.0,22.0,92,0.00,,,0.00,137.00,VWS V14.01,2013-02-09 20:31:00,
2013-02-09 15:32:00,19.0,17.1,29.94,WSW,258,6.0,22.0,92,0.00,,,0.00,118.00,VWS V14.01,2013-02-09 20:32:00,
2013-02-09 15:36:00,19.0,17.1,29.94,NNW,340,10.0,22.0,92,0.00,,,0.00,121.00,VWS V14.01,2013-02-09 20:36:00,
2013-02-09 15:41:00,18.9,17.0,29.94,West,267,6.0,22.0,92,0.00,,,0.00,105.00,VWS V14.01,2013-02-09 20:41:00,
2013-02-09 15:43:00,18.8,16.9,29.94,North,351,8.0,22.0,92,0.00,,,0.00,95.00,VWS V14.01,2013-02-09 20:43:00,
2013-02-09 15:46:00,18.8,16.9,29.94,NW,319,7.0,22.0,92,0.00,,,0.00,67.00,VWS V14.01,2013-02-09 20:46:00,
2013-02-09 15:48:00,18.8,16.9,29.95,West,261,7.0,22.0,92,0.00,,,0.00,58.00,VWS V14.01,2013-02-09 20:48:00,
2013-02-09 15:49:00,18.8,16.9,29.95,North,355,10.0,22.0,92,0.00,,,0.00,62.00,VWS V14.01,2013-02-09 20:49:00,
2013-02-09 15:51:00,18.7,16.8,29.94,WNW,294,6.0,22.0,92,0.00,,,0.00,67.00,VWS V14.01,2013-02-09 20:51:00,
2013-02-09 15:53:00,18.7,16.8,29.94,WNW,296,7.0,22.0,92,0.00,,,0.00,76.00,VWS V14.01,2013-02-09 20:53:00,
2013-02-09 15:56:00,18.7,16.8,29.95,WNW,300,6.0,22.0,92,0.00,,,0.00,54.00,VWS V14.01,2013-02-09 20:56:00,
2013-02-09 16:00:00,18.7,16.8,29.95,NW,306,2.0,22.0,92,0.00,,,0.00,58.00,VWS V14.01,2013-02-09 21:00:00,
2013-02-09 16:01:00,18.7,16.8,29.95,NW,309,10.0,22.0,92,0.00,,,0.00,51.00,VWS V14.01,2013-02-09 21:01:00,
2013-02-09 16:05:00,18.7,16.8,29.95,NNW,339,6.0,22.0,92,0.00,,,0.00,46.00,VWS V14.01,2013-02-09 21:05:00,
2013-02-09 16:08:00,18.6,16.7,29.95,NW,321,7.0,13.0,92,0.00,,,0.00,42.00,VWS V14.01,2013-02-09 21:08:00,
2013-02-09 16:10:00,18.6,16.7,29.95,NW,324,7.0,18.0,92,0.00,,,0.00,40.00,VWS V14.01,2013-02-09 21:10:00,
2013-02-09 16:12:00,18.6,16.7,29.96,NW,306,6.0,21.0,92,0.00,,,0.00,37.00,VWS V14.01,2013-02-09 21:12:00,
2013-02-09 16:13:00,18.6,16.7,29.96,NW,304,7.0,21.0,92,0.00,,,0.00,33.00,VWS V14.01,2013-02-09 21:13:00,
2013-02-09 16:17:00,18.5,16.6,29.96,West,277,8.0,21.0,92,0.00,,,0.00,30.00,VWS V14.01,2013-02-09 21:17:00,
2013-02-09 16:18:00,18.4,16.5,29.96,WNW,284,4.0,21.0,92,0.00,,,0.00,28.00,VWS V14.01,2013-02-09 21:18:00,
2013-02-09 16:20:00,18.4,16.5,29.96,NW,310,7.0,21.0,92,0.00,,,0.00,28.00,VWS V14.01,2013-02-09 21:20:00,
2013-02-09 16:22:00,18.3,16.4,29.96,West,278,8.0,21.0,92,0.00,,,0.00,26.00,VWS V14.01,2013-02-09 21:22:00,
2013-02-09 16:24:00,18.2,16.3,29.97,NNW,327,6.0,21.0,92,0.00,,,0.00,26.00,VWS V14.01,2013-02-09 21:24:00,
2013-02-09 16:25:00,18.2,16.3,29.97,North,351,5.0,21.0,92,0.00,,,0.00,26.00,VWS V14.01,2013-02-09 21:25:00,
2013-02-09 16:29:00,18.2,16.3,29.97,NNW,333,8.0,21.0,92,0.00,,,0.00,23.00,VWS V14.01,2013-02-09 21:29:00,
2013-02-09 16:30:00,18.2,16.3,29.97,WNW,289,1.0,21.0,92,0.00,,,0.00,21.00,VWS V14.01,2013-02-09 21:30:00,
2013-02-09 16:32:00,18.1,16.2,29.97,SW,234,10.0,21.0,92,0.00,,,0.00,21.00,VWS V14.01,2013-02-09 21:32:00,
2013-02-09 16:34:00,18.1,16.2,29.97,NNW,337,2.0,21.0,92,0.00,,,0.00,19.00,VWS V14.01,2013-02-09 21:34:00,
2013-02-09 16:39:00,17.9,16.0,29.97,NNW,333,0.0,21.0,92,0.00,,,0.00,18.00,VWS V14.01,2013-02-09 21:39:00,
2013-02-09 16:41:00,17.8,15.9,29.97,WNW,283,1.0,21.0,92,0.00,,,0.00,16.00,VWS V14.01,2013-02-09 21:41:00,
2013-02-09 16:46:00,17.6,15.7,29.98,NW,317,7.0,21.0,92,0.00,,,0.00,14.00,VWS V14.01,2013-02-09 21:46:00,
2013-02-09 16:48:00,17.5,15.6,29.98,NNW,343,9.0,21.0,92,0.00,,,0.00,14.00,VWS V14.01,2013-02-09 21:48:00,
2013-02-09 16:51:00,17.3,15.4,29.98,West,281,4.0,21.0,92,0.00,,,0.00,12.00,VWS V14.01,2013-02-09 21:51:00,
2013-02-09 16:53:00,17.2,15.3,29.98,NNW,331,11.0,21.0,92,0.00,,,0.00,12.00,VWS V14.01,2013-02-09 21:53:00,
2013-02-09 16:54:00,17.1,14.9,29.98,West,269,7.0,21.0,91,0.00,,,0.00,12.00,VWS V14.01,2013-02-09 21:54:00,
2013-02-09 16:56:00,17.1,14.9,29.99,NW,323,9.0,21.0,91,0.00,,,0.00,11.00,VWS V14.01,2013-02-09 21:56:00,
2013-02-09 16:58:00,17.0,14.8,29.98,NW,311,5.0,21.0,91,0.00,,,0.00,11.00,VWS V14.01,2013-02-09 21:58:00,
2013-02-09 17:01:00,16.9,14.7,30.00,West,272,4.0,21.0,91,0.00,,,0.00,9.00,VWS V14.01,2013-02-09 22:01:00,
2013-02-09 17:05:00,16.7,14.8,30.00,NNW,347,6.0,21.0,92,0.00,,,0.00,7.00,VWS V14.01,2013-02-09 22:05:00,
2013-02-09 17:06:00,16.7,14.8,29.99,West,275,8.0,14.0,92,0.00,,,0.00,7.00,VWS V14.01,2013-02-09 22:06:00,
2013-02-09 17:12:00,16.5,14.3,30.00,NNW,342,4.0,25.0,91,0.00,,,0.00,5.00,VWS V14.01,2013-02-09 22:12:00,
2013-02-09 17:15:00,16.4,14.2,30.00,NNW,333,7.0,25.0,91,0.00,,,0.00,0.00,VWS V14.01,2013-02-09 22:15:00,
2013-02-09 17:19:00,16.3,14.1,30.00,NW,315,2.0,25.0,91,0.00,,,0.00,0.00,VWS V14.01,2013-02-09 22:19:00,
2013-02-09 17:20:00,16.2,14.0,30.00,NNW,327,4.0,25.0,91,0.00,,,0.00,0.00,VWS V14.01,2013-02-09 22:20:00,
2013-02-09 17:22:00,16.2,14.0,30.01,NW,317,3.0,25.0,91,0.00,,,0.00,0.00,VWS V14.01,2013-02-09 22:22:00,
2013-02-09 17:24:00,16.2,14.0,30.01,NNW,329,3.0,25.0,91,0.00,,,0.00,0.00,VWS V14.01,2013-02-09 22:24:00,
2013-02-09 17:25:00,16.2,14.0,30.01,WNW,292,2.0,25.0,91,0.00,,,0.00,0.00,VWS V14.01,2013-02-09 22:25:00,
2013-02-09 17:29:00,16.1,13.9,30.02,WNW,288,4.0,25.0,91,0.00,,,0.00,0.00,VWS V14.01,2013-02-09 22:29:00,
2013-02-09 17:30:00,16.1,13.9,30.02,WNW,288,7.0,25.0,91,0.00,,,0.00,0.00,VWS V14.01,2013-02-09 22:30:00,
2013-02-09 17:32:00,16.0,13.8,30.02,NNW,337,5.0,25.0,91,0.00,,,0.00,0.00,VWS V14.01,2013-02-09 22:32:00,
2013-02-09 17:35:00,15.9,13.7,30.03,NW,319,10.0,25.0,91,0.00,,,0.00,0.00,VWS V14.01,2013-02-09 22:35:00,
2013-02-09 17:37:00,15.9,13.7,30.03,NNW,339,7.0,25.0,91,0.00,,,0.00,0.00,VWS V14.01,2013-02-09 22:37:00,
2013-02-09 17:39:00,15.8,13.6,30.03,West,273,7.0,25.0,91,0.00,,,0.00,0.00,VWS V14.01,2013-02-09 22:39:00,
2013-02-09 17:41:00,15.7,13.5,30.03,NNW,332,4.0,25.0,91,0.00,,,0.00,0.00,VWS V14.01,2013-02-09 22:41:00,
2013-02-09 17:46:00,15.5,13.4,30.03,WNW,302,4.0,25.0,91,0.00,,,0.00,0.00,VWS V14.01,2013-02-09 22:46:00,
2013-02-09 17:47:00,15.5,13.4,30.04,NW,323,12.0,25.0,91,0.00,,,0.00,0.00,VWS V14.01,2013-02-09 22:47:00,
2013-02-09 17:51:00,15.3,13.1,30.04,NW,319,8.0,25.0,91,0.00,,,0.00,0.00,VWS V14.01,2013-02-09 22:51:00,
2013-02-09 17:52:00,15.3,13.1,30.04,NNW,338,2.0,25.0,91,0.00,,,0.00,0.00,VWS V14.01,2013-02-09 22:52:00,
2013-02-09 17:56:00,15.2,13.1,30.05,NNW,344,2.0,25.0,91,0.00,,,0.00,0.00,VWS V14.01,2013-02-09 22:56:00,
2013-02-09 17:57:00,15.1,12.9,30.05,NNW,333,5.0,25.0,91,0.00,,,0.00,0.00,VWS V14.01,2013-02-09 22:57:00,
2013-02-09 17:59:00,15.1,12.9,30.05,NNW,342,6.0,25.0,91,0.00,,,0.00,0.00,VWS V14.01,2013-02-09 22:59:00,
2013-02-09 18:01:00,15.0,12.9,30.05,West,279,9.0,25.0,91,0.00,,,0.00,0.00,VWS V14.01,2013-02-09 23:01:00,
2013-02-09 18:03:00,15.0,12.9,30.05,NNW,348,13.0,25.0,91,0.00,,,0.00,0.00,VWS V14.01,2013-02-09 23:03:00,
2013-02-09 18:05:00,14.9,12.8,30.05,WNW,296,9.0,25.0,91,0.00,,,0.00,0.00,VWS V14.01,2013-02-09 23:05:00,
2013-02-09 18:09:00,14.8,12.6,30.05,WNW,294,4.0,11.0,91,0.00,,,0.00,0.00,VWS V14.01,2013-02-09 23:09:00,
2013-02-09 18:11:00,14.7,12.6,30.06,NW,323,2.0,11.0,91,0.00,,,0.00,0.00,VWS V14.01,2013-02-09 23:11:00,
2013-02-09 18:13:00,14.7,12.6,30.06,NW,317,5.0,11.0,91,0.00,,,0.00,0.00,VWS V14.01,2013-02-09 23:13:00,
2013-02-09 18:16:00,14.6,12.5,30.06,West,278,2.0,11.0,91,0.00,,,0.00,0.00,VWS V14.01,2013-02-09 23:16:00,
2013-02-09 18:18:00,14.6,12.5,30.06,West,275,8.0,11.0,91,0.00,,,0.00,0.00,VWS V14.01,2013-02-09 23:18:00,
2013-02-09 18:23:00,14.5,12.4,30.06,WNW,299,4.0,13.0,91,0.00,,,0.00,0.00,VWS V14.01,2013-02-09 23:23:00,
2013-02-09 18:26:00,14.4,12.3,30.06,NNW,338,5.0,13.0,91,0.00,,,0.00,0.00,VWS V14.01,2013-02-09 23:26:00,
2013-02-09 18:30:00,14.3,12.2,30.06,NW,321,7.0,13.0,91,0.00,,,0.00,0.00,VWS V14.01,2013-02-09 23:30:00,
2013-02-09 18:32:00,14.3,12.2,30.07,NNW,331,2.0,13.0,91,0.00,,,0.00,0.00,VWS V14.01,2013-02-09 23:32:00,
2013-02-09 18:33:00,14.3,12.2,30.07,West,275,9.0,13.0,91,0.00,,,0.00,0.00,VWS V14.01,2013-02-09 23:33:00,
2013-02-09 18:37:00,14.2,12.1,30.07,WNW,283,3.0,13.0,91,0.00,,,0.00,0.00,VWS V14.01,2013-02-09 23:37:00,
2013-02-09 18:38:00,14.1,12.0,30.07,NNW,336,4.0,13.0,91,0.00,,,0.00,0.00,VWS V14.01,2013-02-09 23:38:00,
2013-02-09 18:40:00,14.1,12.0,30.07,NNW,327,6.0,13.0,91,0.00,,,0.00,0.00,VWS V14.01,2013-02-09 23:40:00,
2013-02-09 18:45:00,14.0,11.6,30.07,WNW,297,4.0,13.0,90,0.00,,,0.00,0.00,VWS V14.01,2013-02-09 23:45:00,
2013-02-09 18:47:00,14.0,11.6,30.07,NNW,331,1.0,13.0,90,0.00,,,0.00,0.00,VWS V14.01,2013-02-09 23:47:00,
2013-02-09 18:52:00,13.9,11.5,30.08,NW,314,7.0,13.0,90,0.00,,,0.00,0.00,VWS V14.01,2013-02-09 23:52:00,
2013-02-09 18:54:00,13.8,11.4,30.08,NNW,327,4.0,13.0,90,0.00,,,0.00,0.00,VWS V14.01,2013-02-09 23:54:00,
2013-02-09 18:55:00,13.8,11.4,30.08,NNW,330,2.0,13.0,90,0.00,,,0.00,0.00,VWS V14.01,2013-02-09 23:55:00,
2013-02-09 19:01:00,13.7,11.3,30.08,WNW,295,5.0,13.0,90,0.00,,,0.00,0.00,VWS V14.01,2013-02-10 00:01:00,
2013-02-09 19:02:00,13.6,11.2,30.08,NNW,329,8.0,13.0,90,0.00,,,0.00,0.00,VWS V14.01,2013-02-10 00:02:00,
2013-02-09 19:04:00,13.6,11.2,30.08,NNW,334,5.0,13.0,90,0.00,,,0.00,0.00,VWS V14.01,2013-02-10 00:04:00,
2013-02-09 19:05:00,13.6,11.2,30.09,NNW,331,5.0,16.0,90,0.00,,,0.00,0.00,VWS V14.01,2013-02-10 00:05:00,
2013-02-09 19:07:00,13.5,11.1,30.08,NNW,333,14.0,14.0,90,0.00,,,0.00,0.00,VWS V14.01,2013-02-10 00:07:00,
2013-02-09 19:09:00,13.5,11.1,30.08,NW,306,4.0,15.0,90,0.00,,,0.00,0.00,VWS V14.01,2013-02-10 00:09:00,
2013-02-09 19:14:00,13.4,11.0,30.09,NW,323,3.0,16.0,90,0.00,,,0.00,0.00,VWS V14.01,2013-02-10 00:14:00,
2013-02-09 19:18:00,13.4,11.0,30.09,WNW,291,9.0,16.0,90,0.00,,,0.00,0.00,VWS V14.01,2013-02-10 00:18:00,
2013-02-09 19:19:00,13.3,10.9,30.09,NNW,340,5.0,16.0,90,0.00,,,0.00,0.00,VWS V14.01,2013-02-10 00:19:00,
2013-02-09 19:21:00,13.3,10.9,30.09,NW,305,11.0,16.0,90,0.00,,,0.00,0.00,VWS V14.01,2013-02-10 00:21:00,
2013-02-09 19:25:00,13.2,10.8,30.08,NW,323,2.0,16.0,90,0.00,,,0.00,0.00,VWS V14.01,2013-02-10 00:25:00,
2013-02-09 19:30:00,13.1,10.7,30.09,NNW,348,6.0,16.0,90,0.00,,,0.00,0.00,VWS V14.01,2013-02-10 00:30:00,
2013-02-09 19:31:00,13.1,10.7,30.09,West,273,8.0,16.0,90,0.00,,,0.00,0.00,VWS V14.01,2013-02-10 00:31:00,
2013-02-09 19:33:00,13.1,10.7,30.09,NW,315,8.0,16.0,90,0.00,,,0.00,0.00,VWS V14.01,2013-02-10 00:33:00,
2013-02-09 19:37:00,13.0,10.6,30.09,NNW,327,11.0,16.0,90,0.00,,,0.00,0.00,VWS V14.01,2013-02-10 00:37:00,
2013-02-09 19:40:00,13.0,10.6,30.09,NW,317,2.0,19.0,90,0.00,,,0.00,0.00,VWS V14.01,2013-02-10 00:40:00,
2013-02-09 19:42:00,12.9,10.5,30.10,NNW,344,6.0,19.0,90,0.00,,,0.00,0.00,VWS V14.01,2013-02-10 00:42:00,
2013-02-09 19:43:00,12.9,10.5,30.10,North,5,4.0,19.0,90,0.00,,,0.00,0.00,VWS V14.01,2013-02-10 00:43:00,
2013-02-09 19:45:00,12.9,10.5,30.10,NNW,347,6.0,19.0,90,0.00,,,0.00,0.00,VWS V14.01,2013-02-10 00:45:00,
2013-02-09 19:47:00,12.9,10.5,30.10,NNW,342,5.0,19.0,90,0.00,,,0.00,0.00,VWS V14.01,2013-02-10 00:47:00,
2013-02-09 19:48:00,12.9,10.5,30.10,NW,310,2.0,19.0,90,0.00,,,0.00,0.00,VWS V14.01,2013-02-10 00:48:00,
2013-02-09 19:50:00,12.8,10.4,30.10,North,350,10.0,19.0,90,0.00,,,0.00,0.00,VWS V14.01,2013-02-10 00:50:00,
2013-02-09 19:52:00,12.8,10.4,30.10,WNW,290,4.0,19.0,90,0.00,,,0.00,0.00,VWS V14.01,2013-02-10 00:52:00,
2013-02-09 19:55:00,12.8,10.4,30.10,WNW,289,7.0,19.0,90,0.00,,,0.00,0.00,VWS V14.01,2013-02-10 00:55:00,
2013-02-09 19:57:00,12.7,10.3,30.10,NW,317,3.0,19.0,90,0.00,,,0.00,0.00,VWS V14.01,2013-02-10 00:57:00,
2013-02-09 19:59:00,12.7,10.3,30.11,NW,304,4.0,19.0,90,0.00,,,0.00,0.00,VWS V14.01,2013-02-10 00:59:00,
2013-02-09 20:00:00,12.7,10.3,30.11,North,5,7.0,19.0,90,0.00,,,0.00,0.00,VWS V14.01,2013-02-10 01:00:00,
2013-02-09 20:02:00,12.6,10.2,30.11,NNW,327,9.0,19.0,90,0.00,,,0.00,0.00,VWS V14.01,2013-02-10 01:02:00,
2013-02-09 20:04:00,12.6,10.2,30.11,NNW,343,5.0,19.0,90,0.00,,,0.00,0.00,VWS V14.01,2013-02-10 01:04:00,
2013-02-09 20:07:00,12.5,10.1,30.11,NNW,333,10.0,14.0,90,0.00,,,0.00,0.00,VWS V14.01,2013-02-10 01:07:00,
2013-02-09 20:09:00,12.5,10.1,30.11,NW,325,5.0,14.0,90,0.00,,,0.00,0.00,VWS V14.01,2013-02-10 01:09:00,
2013-02-09 20:11:00,12.4,10.0,30.11,NW,322,9.0,14.0,90,0.00,,,0.00,0.00,VWS V14.01,2013-02-10 01:11:00,
2013-02-09 20:12:00,12.4,10.0,30.11,NNW,337,7.0,14.0,90,0.00,,,0.00,0.00,VWS V14.01,2013-02-10 01:12:00,
2013-02-09 20:14:00,12.3,9.9,30.11,NNW,332,8.0,14.0,90,0.00,,,0.00,0.00,VWS V14.01,2013-02-10 01:14:00,
2013-02-09 20:19:00,12.2,9.8,30.12,WNW,295,7.0,24.0,90,0.00,,,0.00,0.00,VWS V14.01,2013-02-10 01:19:00,
2013-02-09 20:21:00,12.2,9.8,30.12,NW,311,6.0,24.0,90,0.00,,,0.00,0.00,VWS V14.01,2013-02-10 01:21:00,
2013-02-09 20:22:00,12.2,9.8,30.12,West,263,5.0,24.0,90,0.00,,,0.00,0.00,VWS V14.01,2013-02-10 01:22:00,
2013-02-09 20:24:00,12.1,9.7,30.12,NNW,336,7.0,24.0,90,0.00,,,0.00,0.00,VWS V14.01,2013-02-10 01:24:00,
2013-02-09 20:28:00,12.1,9.7,30.12,NW,323,5.0,24.0,90,0.00,,,0.00,0.00,VWS V14.01,2013-02-10 01:28:00,
2013-02-09 20:31:00,12.0,9.6,30.12,North,355,9.0,24.0,90,0.00,,,0.00,0.00,VWS V14.01,2013-02-10 01:31:00,
2013-02-09 20:33:00,12.0,9.6,30.12,WNW,295,11.0,24.0,90,0.00,,,0.00,0.00,VWS V14.01,2013-02-10 01:33:00,
2013-02-09 20:36:00,11.9,9.5,30.13,North,360,10.0,24.0,90,0.00,,,0.00,0.00,VWS V14.01,2013-02-10 01:36:00,
2013-02-09 20:38:00,11.9,9.5,30.13,NNW,329,11.0,24.0,90,0.00,,,0.00,0.00,VWS V14.01,2013-02-10 01:38:00,
2013-02-09 20:41:00,11.9,9.5,30.13,WNW,290,4.0,24.0,90,0.00,,,0.00,0.00,VWS V14.01,2013-02-10 01:41:00,
2013-02-09 20:43:00,11.9,9.5,30.13,NW,313,8.0,24.0,90,0.00,,,0.00,0.00,VWS V14.01,2013-02-10 01:43:00,
2013-02-09 20:46:00,11.8,9.4,30.13,NNW,336,9.0,24.0,90,0.00,,CLR,0.00,0.00,VWS V14.01,2013-02-10 01:46:00,
2013-02-09 20:48:00,11.8,9.4,30.13,North,355,13.0,24.0,90,0.00,,CLR,0.00,0.00,VWS V14.01,2013-02-10 01:48:00,
2013-02-09 20:51:00,11.8,9.4,30.13,WNW,283,10.0,24.0,90,0.00,,CLR,0.00,0.00,VWS V14.01,2013-02-10 01:51:00,
2013-02-09 20:55:00,11.7,9.3,30.13,WSW,254,8.0,24.0,90,0.00,,CLR,0.00,0.00,VWS V14.01,2013-02-10 01:55:00,
2013-02-09 20:57:00,11.7,9.3,30.13,NNW,338,13.0,24.0,90,0.00,,CLR,0.00,0.00,VWS V14.01,2013-02-10 01:57:00,
2013-02-09 20:58:00,11.7,9.3,30.13,West,279,4.0,24.0,90,0.00,,CLR,0.00,0.00,VWS V14.01,2013-02-10 01:58:00,
2013-02-09 21:00:00,11.7,9.3,30.13,WSW,248,5.0,24.0,90,0.00,,CLR,0.00,0.00,VWS V14.01,2013-02-10 02:00:00,
2013-02-09 21:02:00,11.7,9.3,30.14,North,360,7.0,24.0,90,0.00,,CLR,0.00,0.00,VWS V14.01,2013-02-10 02:02:00,
2013-02-09 21:03:00,11.6,9.2,30.14,NNW,327,1.0,24.0,90,0.00,,CLR,0.00,0.00,VWS V14.01,2013-02-10 02:03:00,
2013-02-09 21:05:00,11.6,9.2,30.14,WNW,289,8.0,24.0,90,0.00,,CLR,0.00,0.00,VWS V14.01,2013-02-10 02:05:00,
2013-02-09 21:12:00,11.6,9.2,30.14,NNW,348,5.0,12.0,90,0.00,,CLR,0.00,0.00,VWS V14.01,2013-02-10 02:12:00,
2013-02-09 21:14:00,11.5,9.1,30.14,NNW,338,8.0,12.0,90,0.00,,CLR,0.00,0.00,VWS V14.01,2013-02-10 02:14:00,
2013-02-09 21:15:00,11.5,8.9,30.14,NNW,338,14.0,14.0,89,0.00,,CLR,0.00,0.00,VWS V14.01,2013-02-10 02:15:00,
2013-02-09 21:19:00,11.5,8.9,30.14,NNW,344,5.0,14.0,89,0.00,,CLR,0.00,0.00,VWS V14.01,2013-02-10 02:19:00,
2013-02-09 21:22:00,11.4,8.8,30.15,North,360,10.0,16.0,89,0.00,,CLR,0.00,0.00,VWS V14.01,2013-02-10 02:22:00,
2013-02-09 21:24:00,11.4,8.8,30.15,NNW,340,9.0,16.0,89,0.00,,CLR,0.00,0.00,VWS V14.01,2013-02-10 02:24:00,
2013-02-09 21:26:00,11.4,8.8,30.15,NNW,341,6.0,16.0,89,0.00,,CLR,0.00,0.00,VWS V14.01,2013-02-10 02:26:00,
2013-02-09 21:31:00,11.4,8.8,30.15,NW,305,5.0,16.0,89,0.00,,CLR,0.00,0.00,VWS V14.01,2013-02-10 02:31:00,
2013-02-09 21:34:00,11.3,8.7,30.16,NNW,333,5.0,16.0,89,0.00,,CLR,0.00,0.00,VWS V14.01,2013-02-10 02:34:00,
2013-02-09 21:38:00,11.3,8.7,30.16,NNW,329,7.0,16.0,89,0.00,,CLR,0.00,0.00,VWS V14.01,2013-02-10 02:38:00,
2013-02-09 21:39:00,11.3,8.7,30.16,NNW,348,10.0,16.0,89,0.00,,CLR,0.00,0.00,VWS V14.01,2013-02-10 02:39:00,
2013-02-09 21:43:00,11.3,8.7,30.16,NW,305,4.0,16.0,89,0.00,,CLR,0.00,0.00,VWS V14.01,2013-02-10 02:43:00,
2013-02-09 21:44:00,11.3,8.7,30.16,NW,317,13.0,16.0,89,0.00,,CLR,0.00,0.00,VWS V14.01,2013-02-10 02:44:00,
2013-02-09 21:50:00,11.3,8.7,30.16,NNW,338,5.0,18.0,89,0.00,,CLR,0.00,0.00,VWS V14.01,2013-02-10 02:50:00,
2013-02-09 21:51:00,11.2,8.6,30.16,North,355,7.0,18.0,89,0.00,,CLR,0.00,0.00,VWS V14.01,2013-02-10 02:51:00,
2013-02-09 21:53:00,11.2,8.6,30.16,NNW,341,5.0,18.0,89,0.00,,CLR,0.00,0.00,VWS V14.01,2013-02-10 02:53:00,
2013-02-09 21:56:00,11.2,8.6,30.16,WNW,301,1.0,18.0,89,0.00,,CLR,0.00,0.00,VWS V14.01,2013-02-10 02:56:00,
2013-02-09 22:00:00,11.2,8.6,30.16,NNW,343,5.0,18.0,89,0.00,,CLR,0.00,0.00,VWS V14.01,2013-02-10 03:00:00,
2013-02-09 22:02:00,11.2,8.6,30.17,NW,321,9.0,18.0,89,0.00,,CLR,0.00,0.00,VWS V14.01,2013-02-10 03:02:00,
2013-02-09 22:03:00,11.2,8.6,30.17,NNW,335,10.0,18.0,89,0.00,,CLR,0.00,0.00,VWS V14.01,2013-02-10 03:03:00,
2013-02-09 22:05:00,11.2,8.6,30.17,NNW,329,2.0,18.0,89,0.00,,CLR,0.00,0.00,VWS V14.01,2013-02-10 03:05:00,
2013-02-09 22:07:00,11.2,8.6,30.17,NW,324,1.0,13.0,89,0.00,,CLR,0.00,0.00,VWS V14.01,2013-02-10 03:07:00,
2013-02-09 22:08:00,11.2,8.6,30.17,North,10,11.0,18.0,89,0.00,,CLR,0.00,0.00,VWS V14.01,2013-02-10 03:08:00,
2013-02-09 22:10:00,11.2,8.6,30.17,NNW,344,4.0,18.0,89,0.00,,CLR,0.00,0.00,VWS V14.01,2013-02-10 03:10:00,
2013-02-09 22:12:00,11.2,8.6,30.16,NNW,339,5.0,18.0,89,0.00,,CLR,0.00,0.00,VWS V14.01,2013-02-10 03:12:00,
2013-02-09 22:15:00,11.2,8.6,30.17,North,5,11.0,18.0,89,0.00,,CLR,0.00,0.00,VWS V14.01,2013-02-10 03:15:00,
2013-02-09 22:17:00,11.2,8.6,30.16,NNW,335,7.0,18.0,89,0.00,,CLR,0.00,0.00,VWS V14.01,2013-02-10 03:17:00,
2013-02-09 22:20:00,11.2,8.6,30.17,NNW,344,9.0,18.0,89,0.00,,CLR,0.00,0.00,VWS V14.01,2013-02-10 03:20:00,
2013-02-09 22:22:00,11.1,8.5,30.16,NNW,348,5.0,18.0,89,0.00,,CLR,0.00,0.00,VWS V14.01,2013-02-10 03:22:00,
2013-02-09 22:25:00,11.2,8.6,30.16,North,355,6.0,18.0,89,0.00,,CLR,0.00,0.00,VWS V14.01,2013-02-10 03:25:00,
2013-02-09 22:27:00,11.2,8.6,30.16,NW,306,5.0,18.0,89,0.00,,CLR,0.00,0.00,VWS V14.01,2013-02-10 03:27:00,
2013-02-09 22:29:00,11.2,8.6,30.16,NW,315,3.0,19.0,89,0.00,,CLR,0.00,0.00,VWS V14.01,2013-02-10 03:29:00,
2013-02-09 22:30:00,11.2,8.6,30.16,NNW,335,5.0,19.0,89,0.00,,CLR,0.00,0.00,VWS V14.01,2013-02-10 03:30:00,
2013-02-09 22:32:00,11.2,8.6,30.16,NNW,348,9.0,19.0,89,0.00,,CLR,0.00,0.00,VWS V14.01,2013-02-10 03:32:00,
2013-02-09 22:34:00,11.2,8.6,30.16,NW,312,9.0,19.0,89,0.00,,CLR,0.00,0.00,VWS V14.01,2013-02-10 03:34:00,
2013-02-09 22:35:00,11.2,8.6,30.16,West,281,12.0,19.0,89,0.00,,CLR,0.00,0.00,VWS V14.01,2013-02-10 03:35:00,
2013-02-09 22:39:00,11.2,8.6,30.16,NW,320,8.0,19.0,89,0.00,,CLR,0.00,0.00,VWS V14.01,2013-02-10 03:39:00,
2013-02-09 22:40:00,11.2,8.6,30.16,West,269,8.0,19.0,89,0.00,,CLR,0.00,0.00,VWS V14.01,2013-02-10 03:40:00,
2013-02-09 22:42:00,11.2,8.6,30.16,NNW,336,6.0,19.0,89,0.00,,CLR,0.00,0.00,VWS V14.01,2013-02-10 03:42:00,
2013-02-09 22:44:00,11.2,8.6,30.16,WNW,286,5.0,19.0,89,0.00,,CLR,0.00,0.00,VWS V14.01,2013-02-10 03:44:00,
2013-02-09 22:49:00,11.2,8.6,30.17,West,272,9.0,19.0,89,0.00,,CLR,0.00,0.00,VWS V14.01,2013-02-10 03:49:00,
2013-02-09 22:52:00,11.2,8.6,30.17,NNW,335,5.0,19.0,89,0.00,,CLR,0.00,0.00,VWS V14.01,2013-02-10 03:52:00,
2013-02-09 22:54:00,11.2,8.6,30.17,WSW,244,4.0,19.0,89,0.00,,CLR,0.00,0.00,VWS V14.01,2013-02-10 03:54:00,
2013-02-09 22:56:00,11.2,8.6,30.17,WNW,299,2.0,19.0,89,0.00,,CLR,0.00,0.00,VWS V14.01,2013-02-10 03:56:00,
2013-02-09 22:58:00,11.3,8.7,30.17,NNW,329,5.0,19.0,89,0.00,,CLR,0.00,0.00,VWS V14.01,2013-02-10 03:58:00,
2013-02-09 22:59:00,11.3,8.7,30.17,NW,305,0.0,19.0,89,0.00,,CLR,0.00,0.00,VWS V14.01,2013-02-10 03:59:00,
2013-02-09 23:03:00,11.3,8.7,30.17,West,276,3.0,19.0,89,0.00,,CLR,0.00,0.00,VWS V14.01,2013-02-10 04:03:00,
2013-02-09 23:04:00,11.3,8.7,30.17,West,270,1.0,19.0,89,0.00,,CLR,0.00,0.00,VWS V14.01,2013-02-10 04:04:00,
2013-02-09 23:05:00,11.3,8.7,30.17,West,280,4.0,19.0,89,0.00,,CLR,0.00,0.00,VWS V14.01,2013-02-10 04:05:00,
2013-02-09 23:08:00,11.3,8.7,30.17,NW,315,5.0,8.0,89,0.00,,CLR,0.00,0.00,VWS V14.01,2013-02-10 04:08:00,
2013-02-09 23:11:00,11.3,8.7,30.17,West,281,2.0,10.0,89,0.00,,CLR,0.00,0.00,VWS V14.01,2013-02-10 04:11:00,
2013-02-09 23:13:00,11.3,8.7,30.17,West,277,1.0,10.0,89,0.00,,CLR,0.00,0.00,VWS V14.01,2013-02-10 04:13:00,
2013-02-09 23:16:00,11.3,8.7,30.17,WNW,296,4.0,10.0,89,0.00,,CLR,0.00,0.00,VWS V14.01,2013-02-10 04:16:00,
2013-02-09 23:18:00,11.3,8.7,30.17,WNW,294,5.0,10.0,89,0.00,,CLR,0.00,0.00,VWS V14.01,2013-02-10 04:18:00,
2013-02-09 23:23:00,11.2,8.6,30.17,West,267,6.0,10.0,89,0.00,,CLR,0.00,0.00,VWS V14.01,2013-02-10 04:23:00,
2013-02-09 23:25:00,11.2,8.6,30.18,West,277,1.0,10.0,89,0.00,,CLR,0.00,0.00,VWS V14.01,2013-02-10 04:25:00,
2013-02-09 23:28:00,11.2,8.6,30.18,West,265,1.0,10.0,89,0.00,,CLR,0.00,0.00,VWS V14.01,2013-02-10 04:28:00,
2013-02-09 23:30:00,11.1,8.5,30.18,West,279,5.0,10.0,89,0.00,,CLR,0.00,0.00,VWS V14.01,2013-02-10 04:30:00,
2013-02-09 23:32:00,11.1,8.5,30.18,NW,309,5.0,10.0,89,0.00,,CLR,0.00,0.00,VWS V14.01,2013-02-10 04:32:00,
2013-02-09 23:35:00,11.1,8.5,30.18,NNW,330,1.0,10.0,89,0.00,,CLR,0.00,0.00,VWS V14.01,2013-02-10 04:35:00,
2013-02-09 23:37:00,11.0,8.4,30.18,WNW,283,4.0,10.0,89,0.00,,CLR,0.00,0.00,VWS V14.01,2013-02-10 04:37:00,
2013-02-09 23:38:00,11.0,8.4,30.19,NNW,334,1.0,11.0,89,0.00,,CLR,0.00,0.00,VWS V14.01,2013-02-10 04:38:00,
2013-02-09 23:40:00,11.0,8.4,30.19,West,280,10.0,11.0,89,0.00,,CLR,0.00,0.00,VWS V14.01,2013-02-10 04:40:00,
2013-02-09 23:44:00,10.9,8.3,30.19,West,275,3.0,11.0,89,0.00,,CLR,0.00,0.00,VWS V14.01,2013-02-10 04:44:00,
2013-02-09 23:45:00,10.8,8.2,30.19,West,277,2.0,11.0,89,0.00,,CLR,0.00,0.00,VWS V14.01,2013-02-10 04:45:00,
2013-02-09 23:47:00,10.8,8.2,30.19,West,265,2.0,11.0,89,0.00,,CLR,0.00,0.00,VWS V14.01,2013-02-10 04:47:00,
2013-02-09 23:49:00,10.8,8.2,30.19,North,5,2.0,11.0,89,0.00,,CLR,0.00,0.00,VWS V14.01,2013-02-10 04:49:00,
2013-02-09 23:50:00,10.8,8.2,30.19,NNW,328,4.0,11.0,89,0.00,,CLR,0.00,0.00,VWS V14.01,2013-02-10 04:50:00,
2013-02-09 23:54:00,10.7,8.1,30.19,North,351,0.0,11.0,89,0.00,,CLR,0.00,0.00,VWS V14.01,2013-02-10 04:54:00,
2013-02-09 23:57:00,10.7,8.1,30.19,North,360,0.0,11.0,89,0.00,,CLR,0.00,0.00,VWS V14.01,2013-02-10 04:57:00,
2013-02-09 23:59:00,10.7,8.1,30.19,West,263,0.0,11.0,89,0.00,,CLR,0.00,0.00,VWS V14.01,2013-02-10 04:59:00,